Index of /watch_images/5358

[ICO]NameLast modifiedSizeDescription

[PARENTDIR]Parent Directory  -  
[IMG]53575001-special-offerft160_medium.jpg2016-10-06 11:03 173K 
[IMG]53575031-pavlova-mit-erdbeeren-und-pfrischenft160_medium.jpg2016-10-06 11:03 180K 
[IMG]53575032-erdbeer-cupcakesft160_medium.jpg2016-10-06 11:04 141K 
[IMG]53575034-erdbeer-cupcakesft160_medium.jpg2016-10-06 11:02 166K 
[IMG]53575042-search-concept-on-the-modern-computer-keyboard-keyft160_medium.jpg2016-10-06 11:04 169K 
[IMG]53575046-two-litle-brothers-starting-the-journeyft160_medium.jpg2016-10-06 11:04 215K 
[IMG]53575052-3d-building-icon-setft160_medium.jpg2016-10-06 11:03 173K 
[IMG]53575054-online-shopping-vector-online-store-iconsft160_medium.jpg2016-10-06 11:01 183K 
[IMG]53575055-panzanella-italienischer-brotsalatft160_medium.jpg2016-10-06 11:07 207K 
[IMG]53575056-erdbeer-pfirsich-dessert-cremeft160_medium.jpg2016-10-06 11:06 155K 
[IMG]53575063-little-man-leaving-home-with-huge-luggageft160_medium.jpg2016-10-06 11:07 181K 
[IMG]53575068-mobile-service-idea-infographicft160_medium.jpg2016-10-06 11:07 139K 
[IMG]53575070-gramophoneft160_medium.jpg2016-10-06 11:07 237K 
[IMG]53575077-leaf-eco-symbolft160_medium.jpg2016-10-06 11:08 161K 
[IMG]53575082-banana-stem-ladder-on-eco-leaf-symbolft160_medium.jpg2016-10-06 11:04 164K 
[IMG]53575085-mobile-cloud-serviceft160_medium.jpg2016-10-06 11:02 183K 
[IMG]53575087-online-shopping-idea-concept-designft160_medium.jpg2016-10-06 11:03 187K 
[IMG]53575125-nashville-at-the-cumberland-riverft160_medium.jpg2016-10-06 11:07 174K 
[IMG]53575126-on-a-beach-in-alaskaft160_medium.jpg2016-10-06 11:04 218K 
[IMG]53575132-a-mixed-shool-of-gruntsft160_medium.jpg2016-10-06 11:04 164K 
[IMG]53575133-gird-redft160_medium.jpg2016-10-06 11:05 125K 
[IMG]53575134-georgia-state-capitolft160_medium.jpg2016-10-06 11:03 225K 
[IMG]53575137-what-it-is-like-on-a-reefft160_medium.jpg2016-10-06 11:06 191K 
[IMG]53575138-georgia-state-capitol-buildingft160_medium.jpg2016-10-06 11:04 223K 
[IMG]53575142-a-mixed-shool-of-gruntsft160_medium.jpg2016-10-06 11:06 216K 
[IMG]53575143-compass-cuteft160_medium.jpg2016-10-06 11:08 184K 
[IMG]53575162-vector-circle-device-concepts-with-icons-infographicsft160_medium.jpg2016-10-06 11:04 188K 
[IMG]53575177-nashville-tennessee-usa-downtownft160_medium.jpg2016-10-06 11:03 180K 
[IMG]53575183-earthft160_medium.jpg2016-10-06 11:07 159K 
[IMG]53575187-close-up-of-cigarettesft160_medium.jpg2016-10-06 11:05 149K 
[IMG]53575189-taipei-taiwan-cityscape-in-the-xinyi-financial-districtft160_medium.jpg2016-10-06 11:04 175K 
[IMG]53575207-rome-ancient-churches-in-the-squareft160_medium.jpg2016-10-06 11:07 172K 
[IMG]53575220-rainft160_medium.jpg2016-10-06 11:04 134K 
[IMG]53575244-the-ball-at-the-holeft160_medium.jpg2016-10-06 11:04 141K 
[IMG]53575264-spor-otomobil-serisi-7-ft160_medium.jpg2016-10-06 11:06 165K 
[IMG]53575278-cizgilerle-spor-otomobil-1-ft160_medium.jpg2016-10-06 11:01 130K 
[IMG]53575289-cute-bear-cartoon-with-honeyft160_medium.jpg2016-10-06 11:06 151K 
[IMG]53575290-cute-baby-lion-cartoonft160_medium.jpg2016-10-06 11:02 174K 
[IMG]53575291-little-boy-skateboardingft160_medium.jpg2016-10-06 11:01 152K 
[IMG]53575292ft160_medium.jpg2016-10-06 11:05 158K 
[IMG]53575293-little-chef-with-frying-panft160_medium.jpg2016-10-06 11:02 131K 
[IMG]53575294-muslim-kid-cartoonft160_medium.jpg2016-10-06 11:03 134K 
[IMG]53575296-can-close-upft160_medium.jpg2016-10-06 11:05 168K 
[IMG]53575332-security-word-on-blue-cloud-paper-mail-envelopeft160_medium.jpg2016-10-06 11:01 123K 
[IMG]53575337-ancient-church-romechiesa-ft160_medium.jpg2016-10-06 11:08 172K 
[IMG]53575340-japanese-dumplings-with-chopsticksft160_medium.jpg2016-10-06 11:07 155K 
[IMG]53575343-happy-snowman-with-blank-signft160_medium.jpg2016-10-06 11:06 130K 
[IMG]53575347-japanese-dumplings-with-white-backgroundft160_medium.jpg2016-10-06 11:04 137K 
[IMG]53575348-happy-snowman-with-spruce-cartoonft160_medium.jpg2016-10-06 11:05 146K 
[IMG]53575350-japanese-dumplings-with-white-backgroundft160_medium.jpg2016-10-06 11:01 139K 
[IMG]53575363-contemporary-custom-kitchenft160_medium.jpg2016-10-06 11:05 169K 
[IMG]53575366-contemporary-custom-kitchenft160_medium.jpg2016-10-06 11:03 192K 
[IMG]53575370-server-room-and-control-boardft160_medium.jpg2016-10-06 11:05 246K 
[IMG]53575381-woman-trimming-bushesft160_medium.jpg2016-10-06 11:02 234K 
[IMG]53575384-monument-knight-with-horseft160_medium.jpg2016-10-06 11:04 149K 
[IMG]53575403-umbrellaft160_medium.jpg2016-10-06 11:06 129K 
[IMG]53575412ft160_medium.jpg2016-10-06 11:08 166K 
[IMG]53575413ft160_medium.jpg2016-10-06 11:06 161K 
[IMG]53575441-old-sewing-accessories-on-white-backgroundft160_medium.jpg2016-10-06 11:08 112K 
[IMG]53575443-arc-welder-with-welding-sparksft160_medium.jpg2016-10-06 11:03 120K 
[IMG]53575444-silver-tin-can-design-product-packageft160_medium.jpg2016-10-06 11:07 124K 
[IMG]53575449-businessman-holding-human-icon-hr-hrm-conceptft160_medium.jpg2016-10-06 11:05 162K 
[IMG]53575453-gird-redft160_medium.jpg2016-10-06 11:02 119K 
[IMG]53575462-inch-by-inch-incremental-growth-increasing-ruler-measureft160_medium.jpg2016-10-06 11:06 149K 
[IMG]53575463-success-word-thumb-s-up-like-approval-feedback-ratingft160_medium.jpg2016-10-06 11:02 155K 
[IMG]53575464-take-our-quiz-3d-letters-words-assessment-testft160_medium.jpg2016-10-06 11:07 159K 
[IMG]53575493-kalender-buttonft160_medium.jpg2016-10-06 11:04 171K 
[IMG]53575494-cow-and-power-plantft160_medium.jpg2016-10-06 11:06 144K 
[IMG]53575512-blue-sky-view-from-window-of-the-aircraftft160_medium.jpg2016-10-06 11:04 126K 
[IMG]53575522-blue-sky-with-airplane-wing-traveling-conceptft160_medium.jpg2016-10-06 11:03 143K 
[IMG]53575538-businessman-pointing-human-sign-hr-hrm-hrd-crm-conceptft160_medium.jpg2016-10-06 11:05 145K 
[IMG]53575564-special-offer-forty-percentft160_medium.jpg2016-10-06 11:05 165K 
[IMG]53575566-best-offerft160_medium.jpg2016-10-06 11:02 163K 
[IMG]53575571-top-speed-on-dialft160_medium.jpg2016-10-06 11:07 121K 
[IMG]53575578-open-palm-hand-gestureft160_medium.jpg2016-10-06 11:01 130K 
[IMG]53575582-drawing-a-graphft160_medium.jpg2016-10-06 11:05 154K 
[IMG]53575591-assisi-19ft160_medium.jpg2016-10-06 11:02 160K 
[IMG]53575594-green-leaves-of-creeper-plants-on-treeft160_medium.jpg2016-10-06 11:07 241K 
[IMG]53575605-cinque-terre-riomaggiore-05ft160_medium.jpg2016-10-06 11:08 186K 
[IMG]53575609-drawing-a-graphft160_medium.jpg2016-10-06 11:04 152K 
[IMG]53575611-steel-sheetft160_medium.jpg2016-10-06 11:02 154K 
[IMG]53575612-florenz-dom-florence-cathedral-05ft160_medium.jpg2016-10-06 11:05 167K 
[IMG]53575634-florenz-dom-florence-cathedral-08ft160_medium.jpg2016-10-06 11:07 185K 
[IMG]53575645-tribal-textureft160_medium.jpg2016-10-06 11:04 263K 
[IMG]53575652-holding-house-representing-home-ownershipft160_medium.jpg2016-10-06 11:04 146K 
[IMG]53575655-floral-textureft160_medium.jpg2016-10-06 11:07 254K 
[IMG]53575673-leafs-textureft160_medium.jpg2016-10-06 11:02 200K 
[IMG]53575676-holding-house-representing-home-ownershipft160_medium.jpg2016-10-06 11:06 145K 
[IMG]53575680-floral-textureft160_medium.jpg2016-10-06 11:08 243K 
[IMG]53575684-floral-textureft160_medium.jpg2016-10-06 11:06 260K 
[IMG]53575686-floral-textureft160_medium.jpg2016-10-06 11:06 272K 
[IMG]53575698-floral-textureft160_medium.jpg2016-10-06 11:04 250K 
[IMG]53575701-teamwork-swooshes-logoft160_medium.jpg2016-10-06 11:02 155K 
[IMG]53575702-teamwork-business-swooshes-logo-vectorft160_medium.jpg2016-10-06 11:05 157K 
[IMG]53575705-floral-textureft160_medium.jpg2016-10-06 11:04 250K 
[IMG]53575717-holding-house-representing-home-ownershipft160_medium.jpg2016-10-06 11:08 129K 
[IMG]53575731-beautiful-woman-with-long-hair-ft160_medium.jpg2016-10-06 11:02 180K 
[IMG]53575734-tribal-textureft160_medium.jpg2016-10-06 11:01 268K 
[IMG]53575739-tribal-textureft160_medium.jpg2016-10-06 11:07 241K 
[IMG]53575741-a-group-of-chocolate-and-pink-french-macarons-and-a-mug-of-teaft160_medium.jpg2016-10-06 11:06 139K 
[IMG]53575742-beer-mug-and-grilled-sausagesft160_medium.jpg2016-10-06 11:02 142K 
[IMG]53575751-tribal-textureft160_medium.jpg2016-10-06 11:04 310K 
[IMG]53575755-tribal-textureft160_medium.jpg2016-10-06 11:02 319K 
[IMG]53575757-tribal-textureft160_medium.jpg2016-10-06 11:07 314K 
[IMG]53575767-tribal-textureft160_medium.jpg2016-10-06 11:01 251K 
[IMG]53575772-paestum-13ft160_medium.jpg2016-10-06 11:04 177K 
[IMG]53575783-tribal-textureft160_medium.jpg2016-10-06 11:06 287K 
[IMG]53575788-holding-house-representing-home-ownershipft160_medium.jpg2016-10-06 11:01 130K 
[IMG]53575794-pisa-san-piero-a-grado-02ft160_medium.jpg2016-10-06 11:02 179K 
[IMG]53575795-white-wine-bottle-and-two-glassesft160_medium.jpg2016-10-06 11:03 138K 
[IMG]53575797-floral-textureft160_medium.jpg2016-10-06 11:07 315K 
[IMG]53575801-tribal-textureft160_medium.jpg2016-10-06 11:07 350K 
[IMG]53575810-two-red-wine-bottlesft160_medium.jpg2016-10-06 11:08 137K 
[IMG]53575815-swirlsft160_medium.jpg2016-10-06 11:06 165K 
[IMG]53575822-various-types-of-cheesesft160_medium.jpg2016-10-06 11:06 137K 
[IMG]53575829-leafs-textureft160_medium.jpg2016-10-06 11:04 283K 
[IMG]53575830-holding-house-representing-home-ownershipft160_medium.jpg2016-10-06 11:04 129K 
[IMG]53575831-ancient-wallft160_medium.jpg2016-10-06 11:02 143K 
[IMG]53575832-antique-patternft160_medium.jpg2016-10-06 11:06 274K 
[IMG]53575833-leafs-textureft160_medium.jpg2016-10-06 11:02 223K 
[IMG]53575835-a-group-of-chocolate-and-pink-french-macarons-and-a-mug-of-teaft160_medium.jpg2016-10-06 11:04 194K 
[IMG]53575837-two-champagne-glasses-bottle-in-bucket-and-letterft160_medium.jpg2016-10-06 11:06 145K 
[IMG]53575840-toskana-zypressen-mit-weg-tuscany-cypress-trees-with-track-03ft160_medium.jpg2016-10-06 11:05 154K 
[IMG]53575852-abstact-textureft160_medium.jpg2016-10-06 11:08 298K 
[IMG]53575859-baby-yoghurt-and-milk-bottleft160_medium.jpg2016-10-06 11:05 118K 
[IMG]53575863-tropea-03ft160_medium.jpg2016-10-06 11:01 187K 
[IMG]53575868-wave-textureft160_medium.jpg2016-10-06 11:03 238K 
[IMG]53575873-businessman-touching-human-resources-signft160_medium.jpg2016-10-06 11:07 163K 
[IMG]53575875-young-pretty-woman-with-red-manicure-and-lipsft160_medium.jpg2016-10-06 11:03 155K 
[IMG]53575877-smoke-and-incenseft160_medium.jpg2016-10-06 11:02 169K 
[IMG]53575878-tropea-04ft160_medium.jpg2016-10-06 11:01 220K 
[IMG]53575880-bathroom-bottles-towels-and-candlesft160_medium.jpg2016-10-06 11:02 145K 
[IMG]53575881-fashion-model-with-red-nailsft160_medium.jpg2016-10-06 11:07 159K 
[IMG]53575884-wave-textureft160_medium.jpg2016-10-06 11:05 229K 
[IMG]53575885-business-analysisft160_medium.jpg2016-10-06 11:05 162K 
[IMG]53575893-beautiful-happy-smiling-woman-with-brown-hairsft160_medium.jpg2016-10-06 11:08 162K 
[IMG]53575895-dentist-showing-dental-castft160_medium.jpg2016-10-06 11:05 148K 
[IMG]53575899-beautiful-face-of-woman-with-curly-brown-hairsft160_medium.jpg2016-10-06 11:04 189K 
[IMG]53575915-beautiful-brunette-woman-with-style-hairstyleft160_medium.jpg2016-10-06 11:07 171K 
[IMG]53575917-beautiful-sexy-woman-with-broun-curly-hairsft160_medium.jpg2016-10-06 11:07 165K 
[IMG]53575932-wooden-kitchen-utensilsft160_medium.jpg2016-10-06 11:06 122K 
[IMG]53575937-young-couple-camping-lying-in-tentft160_medium.jpg2016-10-06 11:03 244K 
[IMG]53575938-glass-bottle-of-milk-and-cookiesft160_medium.jpg2016-10-06 11:07 112K 
[IMG]53575944-bracelet-over-blackft160_medium.jpg2016-10-06 11:04 138K 
[IMG]53575946-dentist-showing-dental-castft160_medium.jpg2016-10-06 11:05 139K 
[IMG]53575947-euro-cents-in-glass-over-blackft160_medium.jpg2016-10-06 11:07 132K 
[IMG]53575949-set-of-colorful-cupsft160_medium.jpg2016-10-06 11:01 137K 
[IMG]53575952-teeth-modelft160_medium.jpg2016-10-06 11:08 151K 
[IMG]53575956-set-of-colorful-cupsft160_medium.jpg2016-10-06 11:05 138K 
[IMG]53575957-waterft160_medium.jpg2016-10-06 11:05 135K 
[IMG]53575960-businessman-on-white-backgroundft160_medium.jpg2016-10-06 11:03 125K 
[IMG]53575962-fresh-rosesft160_medium.jpg2016-10-06 11:07 148K 
[IMG]53575963-engineer-on-white-backgroundft160_medium.jpg2016-10-06 11:04 128K 
[IMG]53575980-hand-coins-in-finger-and-row-stacks-themft160_medium.jpg2016-10-06 11:03 111K 
[IMG]53575985-coconutft160_medium.jpg2016-10-06 11:03 153K 
[IMG]53575986-teeth-modelft160_medium.jpg2016-10-06 11:07 138K 
[IMG]53575989-hand-coins-in-finger-and-row-stacks-themft160_medium.jpg2016-10-06 11:04 136K 
[IMG]53575998-hand-coins-in-finger-and-row-stacks-themft160_medium.jpg2016-10-06 11:01 157K 
[IMG]53575999-picture-frame-with-brown-texture-and-golden-ornamentft160_medium.jpg2016-10-06 11:04 145K 
[IMG]53576004-laptopft160_medium.jpg2016-10-06 11:02 107K 
[IMG]53576010-two-hot-dogs-with-various-ingredientsft160_medium.jpg2016-10-06 11:03 144K 
[IMG]53576011-teeth-modelft160_medium.jpg2016-10-06 11:03 139K 
[IMG]53576022-hot-dog-with-lettuce-and-tomato-slicesft160_medium.jpg2016-10-06 11:05 149K 
[IMG]53576028-fresh-green-salad-in-a-bowlft160_medium.jpg2016-10-06 11:03 142K 
[IMG]53576037-fresh-ripe-vegetables-in-basketft160_medium.jpg2016-10-06 11:02 156K 
[IMG]53576044-woman-and-shawl-at-sea-shoreft160_medium.jpg2016-10-06 11:06 140K 
[IMG]53576045-plant-on-gold-coins-and-graph-in-handft160_medium.jpg2016-10-06 11:07 120K 
[IMG]53576046-fresh-ripe-vegetables-in-basketft160_medium.jpg2016-10-06 11:07 174K 
[IMG]53576047-dentist-showing-dental-castft160_medium.jpg2016-10-06 11:07 138K 
[IMG]53576058-baby-beach-sand-toysft160_medium.jpg2016-10-06 11:07 139K 
[IMG]53576065-baby-beach-sand-toysft160_medium.jpg2016-10-06 11:04 140K 
[IMG]53576074-beach-baby-toys-towels-and-bottlesft160_medium.jpg2016-10-06 11:03 152K 
[IMG]53576075-beautiful-valentine-background-eps-10ft160_medium.jpg2016-10-06 11:04 160K 
[IMG]53576089-seagull-above-the-seaft160_medium.jpg2016-10-06 11:01 172K 
[IMG]53576093-abstract-background-modern-squareft160_medium.jpg2016-10-06 11:04 124K 
[IMG]53576095-sunrise-time-lapse-on-top-of-haleakala-crater-mauift160_medium.jpg2016-10-06 11:06 107K 
[IMG]53576107-berry-pancakeft160_medium.jpg2016-10-06 11:07 170K 
[IMG]53576113-green-leafsft160_medium.jpg2016-10-06 11:03 134K 
[IMG]53576118-green-leafsft160_medium.jpg2016-10-06 11:05 135K 
[IMG]53576122-dentist-showing-dental-castft160_medium.jpg2016-10-06 11:05 143K 
[IMG]53576124ft160_medium.jpg2016-10-06 11:07 155K 
[IMG]53576125-ripe-green-apples-in-basketft160_medium.jpg2016-10-06 11:03 170K 
[IMG]53576132-dentist-showing-dental-castft160_medium.jpg2016-10-06 11:02 148K 
[IMG]53576138-can-with-canned-tinned-peas-ft160_medium.jpg2016-10-06 11:08 190K 
[IMG]53576141-fresh-ripe-green-apples-in-basketft160_medium.jpg2016-10-06 11:04 168K 
[IMG]53576145-sack-bag-isolated-coal-carbon-nuggetsft160_medium.jpg2016-10-06 11:07 142K 
[IMG]53576150-panoramic-dental-x-rayft160_medium.jpg2016-10-06 11:05 163K 
[IMG]53576156-electrical-toothbrush-isolated-on-whiteft160_medium.jpg2016-10-06 11:03 128K 
[IMG]53576159-condiments-and-herbsft160_medium.jpg2016-10-06 11:04 141K 
[IMG]53576162-vector-win-casino-chipsft160_medium.jpg2016-10-06 11:03 178K 
[IMG]53576169-fragrant-smoked-sausage-on-a-white-backgroundft160_medium.jpg2016-10-06 11:03 134K 
[IMG]53576171-various-pasta-tomato-and-condimentsft160_medium.jpg2016-10-06 11:07 154K 
[IMG]53576174-aluminum-canft160_medium.jpg2016-10-06 11:05 118K 
[IMG]53576175-sausage-bread-and-spices-on-wooden-surfaceft160_medium.jpg2016-10-06 11:08 203K 
[IMG]53576176-the-old-castle-in-malbork-poland-ft160_medium.jpg2016-10-06 11:03 162K 
[IMG]53576199-business-man-open-hand-seal-a-dealft160_medium.jpg2016-10-06 11:07 117K 
[IMG]53576271-construction-site-of-local-homes-with-rooftopsft160_medium.jpg2016-10-06 11:06 153K 
[IMG]53576290-reiswaffeln-belegt-mit-luftgetrocknetem-schinkenft160_medium.jpg2016-10-06 11:03 192K 
[IMG]53576306-dental-x-rayft160_medium.jpg2016-10-06 11:08 157K 
[IMG]53576308-detail-of-an-old-brick-wall-from-ribe-denmark-ft160_medium.jpg2016-10-06 11:06 202K 
[IMG]53576310-old-cobbled-stone-road-running-diagonally-ft160_medium.jpg2016-10-06 11:03 168K 
[IMG]53576331-brain-coral-on-shallow-reefft160_medium.jpg2016-10-06 11:05 202K 
[IMG]53576334-mediterranean-cove-with-vacation-villageft160_medium.jpg2016-10-06 11:03 178K 
[IMG]53576335-mediterranean-village-panoramaft160_medium.jpg2016-10-06 11:02 116K 
[IMG]53576336-moon-jellyfish-and-water-surfaceft160_medium.jpg2016-10-06 11:03 159K 
[IMG]53576338-rocky-islets-eroded-by-the-seaft160_medium.jpg2016-10-06 11:06 159K 
[IMG]53576339-tranquil-cove-in-mediterranean-spainft160_medium.jpg2016-10-06 11:02 180K 
[IMG]53576340-tropical-beach-with-lush-vegetationft160_medium.jpg2016-10-06 11:06 182K 
[IMG]53576344-underwater-landscape-in-a-coral-reefft160_medium.jpg2016-10-06 11:02 196K 
[IMG]53576350-x-ray-pictureft160_medium.jpg2016-10-06 11:07 140K 
[IMG]53576357-pizza-with-bacon-garlic-and-dried-chillift160_medium.jpg2016-10-06 11:04 202K 
[IMG]53576359-kueste-von-gran-canariaft160_medium.jpg2016-10-06 11:02 179K 
[IMG]53576365-hong-kong-s-victoria-harbour-at-nightft160_medium.jpg2016-10-06 11:06 141K 
[IMG]53576381-set-of-fire-icons-ft160_medium.jpg2016-10-06 11:08 191K 
[IMG]53576382-a-white-roughly-textured-brick-wall-painted-with-white-paintft160_medium.jpg2016-10-06 11:06 160K 
[IMG]53576389-signboard-isolated-on-a-white-backgroundft160_medium.jpg2016-10-06 11:05 151K 
[IMG]53576400-wooden-sign-isolated-on-a-white-backgroundft160_medium.jpg2016-10-06 11:02 153K 
[IMG]53576406-shell-on-the-beachft160_medium.jpg2016-10-06 11:04 137K 
[IMG]53576412-marine-background-with-seashells-on-sand-ft160_medium.jpg2016-10-06 11:07 139K 
[IMG]53576426-wild-strawberryft160_medium.jpg2016-10-06 11:03 159K 
[IMG]53576428-kueste-von-gran-canariaft160_medium.jpg2016-10-06 11:04 179K 
[IMG]53576432-jasminft160_medium.jpg2016-10-06 11:04 137K 
[IMG]53576434-woman-overwhelmed-by-medicine-pillsft160_medium.jpg2016-10-06 11:06 156K 
[IMG]53576442-coming-storm-when-australia-noosa-coastal-landscapeft160_medium.jpg2016-10-06 11:02 181K 
[IMG]53576446-strawberry-yoghurtft160_medium.jpg2016-10-06 11:02 194K 
[IMG]53576457-shells-and-blank-paper-sheetft160_medium.jpg2016-10-06 11:07 131K 
[IMG]53576461-pizza-with-bacon-garlic-and-dried-chillift160_medium.jpg2016-10-06 11:06 201K 
[IMG]53576462-fresh-strawberry-with-leavesft160_medium.jpg2016-10-06 11:04 161K 
[IMG]53576464-shells-and-blank-paper-sheetft160_medium.jpg2016-10-06 11:05 133K 
[IMG]53576484-toddler-shoesft160_medium.jpg2016-10-06 11:06 164K 
[IMG]53576489-seashellsft160_medium.jpg2016-10-06 11:07 124K 
[IMG]53576490-entrance-into-the-taj-mahalft160_medium.jpg2016-10-06 11:05 187K 
[IMG]53576494-agra-fort-pillarsft160_medium.jpg2016-10-06 11:06 184K 
[IMG]53576495-agra-fort-in-indiaft160_medium.jpg2016-10-06 11:05 178K 
[IMG]53576496-seashellsft160_medium.jpg2016-10-06 11:06 137K 
[IMG]53576502-seashellsft160_medium.jpg2016-10-06 11:06 135K 
[IMG]53576513-luftgetrockneter-schinken-auf-reiswaffelnft160_medium.jpg2016-10-06 11:01 222K 
[IMG]53576521-teeth-modelft160_medium.jpg2016-10-06 11:04 141K 
[IMG]53576523-metallic-dentist-toolsft160_medium.jpg2016-10-06 11:06 149K 
[IMG]53576534-sandsaeckeft160_medium.jpg2016-10-06 11:04 176K 
[IMG]53576538-53576538ft160_medium.jpg2016-10-06 11:06 157K 
[IMG]53576555-jefferson-memorial-pillars-in-washington-dcft160_medium.jpg2016-10-06 11:05 164K 
[IMG]53576576-menschen-leute-gruppe-group-of-peopleft160_medium.jpg2016-10-06 11:02 170K 
[IMG]53576584-jazz-bandft160_medium.jpg2016-10-06 11:05 234K 
[IMG]53576590-teufelchen-phymata-crassipes-mit-beuteft160_medium.jpg2016-10-06 11:07 158K 
[IMG]53576591-marble-cakeft160_medium.jpg2016-10-06 11:07 146K 
[IMG]53576594-teufelchen-phymata-crassipes-mit-beuteft160_medium.jpg2016-10-06 11:02 158K 
[IMG]53576595-stone-pillars-in-black-and-whiteft160_medium.jpg2016-10-06 11:08 122K 
[IMG]53576598-old-wooden-door-with-stepsft160_medium.jpg2016-10-06 11:03 168K 
[IMG]53576599-ein-teufelchen-phymata-crassipes-lauert-auf-beuteft160_medium.jpg2016-10-06 11:07 164K 
[IMG]53576600-mosque-taj-mahal-indiaft160_medium.jpg2016-10-06 11:05 148K 
[IMG]53576604-lorryft160_medium.jpg2016-10-06 11:03 168K 
[IMG]53576608-crater-lake-oregonft160_medium.jpg2016-10-06 11:02 164K 
[IMG]53576610-tampon-engement-qualiteft160_medium.jpg2016-10-06 11:07 207K 
[IMG]53576615-crater-lake-oregonft160_medium.jpg2016-10-06 11:05 165K 
[IMG]53576651-presents-and-christmas-pattern-backgroundft160_medium.jpg2016-10-06 11:03 290K 
[IMG]53576664-silhouetted-city-skylineft160_medium.jpg2016-10-06 11:06 106K 
[IMG]53576672-seattle-washington-cityscape-with-clouds-timelapse-at-sunsetft160_medium.jpg2016-10-06 11:01 127K 
[IMG]53576674-clavier-offres-d-emploift160_medium.jpg2016-10-06 11:08 148K 
[IMG]53576689-taj-mahal-in-agra-indiaft160_medium.jpg2016-10-06 11:08 153K 
[IMG]53576691-girl-and-the-seaft160_medium.jpg2016-10-06 11:02 168K 
[IMG]53576693-pastryft160_medium.jpg2016-10-06 11:06 143K 
[IMG]53576731-kleiner-junge-beim-bastelnft160_medium.jpg2016-10-06 11:03 146K 
[IMG]53576736-breadft160_medium.jpg2016-10-06 11:06 149K 
[IMG]53576738-shopping-cartsft160_medium.jpg2016-10-06 11:02 149K 
[IMG]53576747-shopping-cartsft160_medium.jpg2016-10-06 11:07 163K 
[IMG]53576765-beautiful-young-indian-woman-in-traditional-clothingft160_medium.jpg2016-10-06 11:05 223K 
[IMG]53576771-broken-stereo-headphonesft160_medium.jpg2016-10-06 11:02 135K 
[IMG]53576772-hanged-jeansft160_medium.jpg2016-10-06 11:03 179K 
[IMG]53576774-hanged-jeansft160_medium.jpg2016-10-06 11:06 196K 
[IMG]53576797-rosenkaefer-auf-margeritenbluetenft160_medium.jpg2016-10-06 11:04 189K 
[IMG]53576799-gold-antique-picture-frameft160_medium.jpg2016-10-06 11:04 143K 
[IMG]53576801-medieval-warrior-armorft160_medium.jpg2016-10-06 11:06 212K 
[IMG]53576807-gold-antique-picture-frameft160_medium.jpg2016-10-06 11:01 126K 
[IMG]53576808-beautiful-young-indian-woman-in-traditional-clothingft160_medium.jpg2016-10-06 11:06 187K 
[IMG]53576810-zwei-rosa-mohnblumenft160_medium.jpg2016-10-06 11:04 136K 
[IMG]53576818-medieval-armor-and-weaponft160_medium.jpg2016-10-06 11:06 182K 
[IMG]53576822-picture-frameft160_medium.jpg2016-10-06 11:04 138K 
[IMG]53576823-picture-frameft160_medium.jpg2016-10-06 11:07 141K 
[IMG]53576835-kleiner-junge-holt-torte-aus-dem-kuehlschrankft160_medium.jpg2016-10-06 11:07 171K 
[IMG]53576838-seamless-camouflage-pattern-ft160_medium.jpg2016-10-06 11:05 235K 
[IMG]53576845-fond-contactft160_medium.jpg2016-10-06 11:03 175K 
[IMG]53576850-picture-frameft160_medium.jpg2016-10-06 11:08 156K 
[IMG]53576856-dollars-money-isolated-on-white-3d-photo-rendering-ft160_medium.jpg2016-10-06 11:03 136K 
[IMG]53576857-background-of-red-berries-in-closeupft160_medium.jpg2016-10-06 11:07 295K 
[IMG]53576861-potatoes-raw-vegetables-food-close-upft160_medium.jpg2016-10-06 11:06 192K 
[IMG]53576863-potatoes-raw-vegetables-food-close-upft160_medium.jpg2016-10-06 11:07 178K 
[IMG]53576873-beautiful-young-indian-woman-in-traditional-clothingft160_medium.jpg2016-10-06 11:02 206K 
[IMG]53576879-medical-doctor-woman-looking-on-test-tube-with-bloodft160_medium.jpg2016-10-06 11:07 146K 
[IMG]53576891-medical-doctor-woman-looking-on-test-tube-with-bloodft160_medium.jpg2016-10-06 11:03 155K 
[IMG]53576900-medical-doctor-woman-looking-on-test-tube-with-bloodft160_medium.jpg2016-10-06 11:03 142K 
[IMG]53576904-modern-dining-room-interiorft160_medium.jpg2016-10-06 11:05 163K 
[IMG]53576909-modernes-wohnzimmer-in-einem-loftft160_medium.jpg2016-10-06 11:02 135K 
[IMG]53576915-modernes-wohnzimmer-in-einem-loftft160_medium.jpg2016-10-06 11:08 134K 
[IMG]53576917-equipment-for-blood-analysisft160_medium.jpg2016-10-06 11:06 155K 
[IMG]53576921-modernes-wohnzimmer-in-einem-loft-ft160_medium.jpg2016-10-06 11:02 143K 
[IMG]53576928-modernes-wohnzimmer-in-einem-loft-ft160_medium.jpg2016-10-06 11:06 146K 
[IMG]53576932-portrait-of-a-beautiful-asian-female-model-wearing-pearl-beadsft160_medium.jpg2016-10-06 11:05 140K 
[IMG]53576935-modernes-wohnzimmer-in-einem-loft-ft160_medium.jpg2016-10-06 11:04 135K 
[IMG]53576942-modern-bathroom-interior-with-stone-wallft160_medium.jpg2016-10-06 11:05 138K 
[IMG]53576946-tampon-exclusivite-internetft160_medium.jpg2016-10-06 11:04 204K 
[IMG]53576950-beautiful-young-indian-woman-in-traditional-clothing-isolated-oft160_medium.jpg2016-10-06 11:07 195K 
[IMG]53576953-weitspringerft160_medium.jpg2016-10-06 11:03 159K 
[IMG]53576956-immeuble-ancien-en-briques-new-yorkft160_medium.jpg2016-10-06 11:06 218K 
[IMG]53576960-immeuble-ancien-de-briques-rouge-et-blanc-ft160_medium.jpg2016-10-06 11:02 178K 
[IMG]53576963-fenetres-sur-facade-rouge-et-blanche-en-briquesft160_medium.jpg2016-10-06 11:03 194K 
[IMG]53576972-5-star-button-blau-pflegeservice-kuz-psft160_medium.jpg2016-10-06 11:07 196K 
[IMG]53576975-5-star-button-blau-pflegeservice-wmdfs-wmdft160_medium.jpg2016-10-06 11:05 197K 
[IMG]53576977-5-star-button-blau-pflegeservice-dto-dtoft160_medium.jpg2016-10-06 11:07 191K 
[IMG]53576980-5-star-button-blau-arrivage-nouveautes-dto-dtoft160_medium.jpg2016-10-06 11:03 201K 
[IMG]53576984-5-star-button-rot-hell-online-umfrage-jm-jmft160_medium.jpg2016-10-06 11:04 194K 
[IMG]53576986-5-star-button-rot-online-umfrage-ja-jaft160_medium.jpg2016-10-06 11:02 194K 
[IMG]53576987-5-star-button-rot-online-umfrage-ou-ouft160_medium.jpg2016-10-06 11:06 193K 
[IMG]53576994-5-star-button-rot-clever-buchen-bus-busft160_medium.jpg2016-10-06 11:06 197K 
[IMG]53576996-5-star-button-rot-clever-buchen-cb-cbft160_medium.jpg2016-10-06 11:06 191K 
[IMG]53576999-5-star-button-rot-speed-dating-dto-dtoft160_medium.jpg2016-10-06 11:08 186K 
[IMG]53577003-5-star-button-rot-punkte-sammeln-dto-dtoft160_medium.jpg2016-10-06 11:06 194K 
[IMG]53577007-5-star-button-blau-100-zufiredenheitft160_medium.jpg2016-10-06 11:07 197K 
[IMG]53577009-5-star-button-blau-100-zufriedenheit-dgw-dgwft160_medium.jpg2016-10-06 11:03 200K 
[IMG]53577011-digital-earthft160_medium.jpg2016-10-06 11:06 138K 
[IMG]53577017-footpath-in-the-field-with-dandelionsft160_medium.jpg2016-10-06 11:05 168K 
[IMG]53577025-immeuble-ancien-en-briques-avec-arbresft160_medium.jpg2016-10-06 11:05 199K 
[IMG]53577047ft160_medium.jpg2016-10-06 11:06 193K 
[IMG]53577074-golden-arrows-going-up-success-concept-illustrationft160_medium.jpg2016-10-06 11:03 147K 
[IMG]53577075-golden-balls-in-a-circleft160_medium.jpg2016-10-06 11:03 141K 
[IMG]53577078-luxury-bedroom-interiorft160_medium.jpg2016-10-06 11:03 163K 
[IMG]53577081-zodiac-symbol-of-masculinity-with-a-lot-of-characters-on-the-edgft160_medium.jpg2016-10-06 11:05 181K 
[IMG]53577086-colorful-speech-bubbles-and-dialog-balloonsft160_medium.jpg2016-10-06 11:08 146K 
[IMG]53577087-colorful-speech-bubbles-and-dialog-balloonsft160_medium.jpg2016-10-06 11:04 151K 
[IMG]53577090-colorful-speech-bubbles-and-dialog-balloonsft160_medium.jpg2016-10-06 11:07 160K 
[IMG]53577091-symbol-for-high-quality-gold-number-one-on-gold-podiumft160_medium.jpg2016-10-06 11:04 149K 
[IMG]53577101-sphere-composition-made-of-golden-starsft160_medium.jpg2016-10-06 11:07 150K 
[IMG]53577105-scientific-backdrop-made-of-twisted-golden-dna-chainsft160_medium.jpg2016-10-06 11:01 149K 
[IMG]53577108-3d-dna-isolated-on-white-backgroundft160_medium.jpg2016-10-06 11:04 142K 
[IMG]53577109-3d-dna-isolated-on-white-backgroundft160_medium.jpg2016-10-06 11:01 133K 
[IMG]53577110-beautiful-young-indian-woman-in-traditional-clothingft160_medium.jpg2016-10-06 11:03 211K 
[IMG]53577111-world-wide-web-www-glossy-gold-letter-symbolft160_medium.jpg2016-10-06 11:03 153K 
[IMG]53577112-black-chevron-arrow-chart-an-image-of-a-blank-stage-chart-ft160_medium.jpg2016-10-06 11:05 135K 
[IMG]53577114-gold-chevron-arrow-chartft160_medium.jpg2016-10-06 11:04 140K 
[IMG]53577117-growing-home-sales-3d-illustrationft160_medium.jpg2016-10-06 11:06 118K 
[IMG]53577118-arrows-in-a-circle-flowft160_medium.jpg2016-10-06 11:02 133K 
[IMG]53577122-arrows-in-a-circle-flowft160_medium.jpg2016-10-06 11:03 133K 
[IMG]53577123-gold-map-markersft160_medium.jpg2016-10-06 11:07 122K 
[IMG]53577126-blue-map-markersft160_medium.jpg2016-10-06 11:07 160K 
[IMG]53577128-heart-shape-golden-ringsft160_medium.jpg2016-10-06 11:06 122K 
[IMG]53577136-red-light-bulb-3d-as-creative-concept-success-conceptft160_medium.jpg2016-10-06 11:02 149K 
[IMG]53577143-microphone-icon-microphone-icon-ft160_medium.jpg2016-10-06 11:06 159K 
[IMG]53577144-scientific-backdrop-made-of-twisted-golden-dna-chainsft160_medium.jpg2016-10-06 11:03 155K 
[IMG]53577145-scientific-backdrop-made-of-twisted-golden-dna-chainsft160_medium.jpg2016-10-06 11:04 151K 
[IMG]53577146-arc-line-and-bend-of-golden-helixft160_medium.jpg2016-10-06 11:08 180K 
[IMG]53577148-metal-spring-isolated-on-white-backgroundft160_medium.jpg2016-10-06 11:05 160K 
[IMG]53577150-cloud-computing-technology-icon-emblemft160_medium.jpg2016-10-06 11:05 161K 
[IMG]53577152-cloud-computing-technology-icon-embleft160_medium.jpg2016-10-06 11:05 125K 
[IMG]53577159-e-mail-icon-ft160_medium.jpg2016-10-06 11:07 139K 
[IMG]53577162-success-conceptft160_medium.jpg2016-10-06 11:02 128K 
[IMG]53577163-success-conceptft160_medium.jpg2016-10-06 11:05 148K 
[IMG]53577165-success-concept-signft160_medium.jpg2016-10-06 11:04 135K 
[IMG]53577167-success-conceptft160_medium.jpg2016-10-06 11:02 146K 
[IMG]53577169-chain-and-lock-padlockft160_medium.jpg2016-10-06 11:05 139K 
[IMG]53577170-heart-in-chainsft160_medium.jpg2016-10-06 11:06 134K 
[IMG]53577171-success-conceptft160_medium.jpg2016-10-06 11:07 136K 
[IMG]53577172-heart-in-chainsft160_medium.jpg2016-10-06 11:06 151K 
[IMG]53577174-golden-engagement-ring-in-a-chrome-chain-isolated-on-whiteft160_medium.jpg2016-10-06 11:04 162K 
[IMG]53577175-golden-engagement-ring-in-a-chrome-chain-isolated-on-whiteft160_medium.jpg2016-10-06 11:06 166K 
[IMG]53577177-data-protection-concept-tablet-pc-with-chains-and-lockft160_medium.jpg2016-10-06 11:07 156K 
[IMG]53577179-data-protection-concept-tablet-pc-with-chains-and-lockft160_medium.jpg2016-10-06 11:07 145K 
[IMG]53577180-grand-jabiruft160_medium.jpg2016-10-06 11:03 142K 
[IMG]53577188-mobile-phone-with-faq-shown-on-its-screenft160_medium.jpg2016-10-06 11:06 131K 
[IMG]53577192-soatule-rosee-percheeft160_medium.jpg2016-10-06 11:04 209K 
[IMG]53577204-growing-percentage-signft160_medium.jpg2016-10-06 11:02 141K 
[IMG]53577205-growing-percentage-signft160_medium.jpg2016-10-06 11:06 128K 
[IMG]53577207-shiny-golden-percentage-symbol-with-an-arrow-downft160_medium.jpg2016-10-06 11:07 131K 
[IMG]53577210-black-background-with-iron-nameplate-with-gold-trimft160_medium.jpg2016-10-06 11:06 153K 
[IMG]53577217-couple-de-lorisft160_medium.jpg2016-10-06 11:06 194K 
[IMG]53577228-loto-boule-blanche-numero-44ft160_medium.jpg2016-10-06 11:03 127K 
[IMG]53577231-beautiful-young-indian-woman-in-traditional-clothing-isolated-oft160_medium.jpg2016-10-06 11:07 195K 
[IMG]53577244-wood-background-with-wooden-name-plate-with-gold-trimft160_medium.jpg2016-10-06 11:01 161K 
[IMG]53577252-calao-papou-percheft160_medium.jpg2016-10-06 11:08 159K 
[IMG]53577254-dark-golden-texture-with-golden-edges-design-template-ft160_medium.jpg2016-10-06 11:02 168K 
[IMG]53577259-villeft160_medium.jpg2016-10-06 11:07 126K 
[IMG]53577260-illustrationft160_medium.jpg2016-10-06 11:02 130K 
[IMG]53577262-detail-of-blue-cocktail-with-bubbles-and-black-strawft160_medium.jpg2016-10-06 11:03 146K 
[IMG]53577273-old-worn-texture-with-black-nameplate-with-gold-trimft160_medium.jpg2016-10-06 11:06 144K 
[IMG]53577274-abstract-business-background-with-world-globeft160_medium.jpg2016-10-06 11:05 150K 
[IMG]53577275-manchot-de-humboldtft160_medium.jpg2016-10-06 11:06 176K 
[IMG]53577276-beverage-on-bedft160_medium.jpg2016-10-06 11:04 198K 
[IMG]53577281-the-old-shabby-texture-with-an-old-plate-in-the-middleft160_medium.jpg2016-10-06 11:05 167K 
[IMG]53577297-old-worn-texture-and-the-texture-of-the-metal-separatedft160_medium.jpg2016-10-06 11:04 173K 
[IMG]53577298-3d-illustration-of-folder-icon-with-gear-wheelft160_medium.jpg2016-10-06 11:03 133K 
[IMG]53577303ft160_medium.jpg2016-10-06 11:06 138K 
[IMG]53577306-kleiner-junge-spielt-keyboardft160_medium.jpg2016-10-06 11:04 143K 
[IMG]53577310-grand-marabout-au-reposft160_medium.jpg2016-10-06 11:01 172K 
[IMG]53577321-beautiful-young-indian-woman-in-traditional-clothingft160_medium.jpg2016-10-06 11:06 201K 
[IMG]53577337-set-of-different-fruits-and-vegetablesft160_medium.jpg2016-10-06 11:08 206K 
[IMG]53577344-food-and-kitchen-utensilsft160_medium.jpg2016-10-06 11:03 147K 
[IMG]53577349-beverage-on-bedft160_medium.jpg2016-10-06 11:06 161K 
[IMG]53577352-cargoft160_medium.jpg2016-10-06 11:07 162K 
[IMG]53577359-5-star-button-blau-jetzt-profitieren-dto-dtoft160_medium.jpg2016-10-06 11:03 193K 
[IMG]53577366-5-star-button-rot-neue-preisliste-dto-dtoft160_medium.jpg2016-10-06 11:08 192K 
[IMG]53577368-5-star-button-rot-neue-preisliste-ja-jaft160_medium.jpg2016-10-06 11:05 193K 
[IMG]53577369-pdf-file-download-illustrationft160_medium.jpg2016-10-06 11:01 136K 
[IMG]53577371-pdf-file-download-illustrationft160_medium.jpg2016-10-06 11:05 138K 
[IMG]53577379-paddy-field-in-the-morningft160_medium.jpg2016-10-06 11:04 203K 
[IMG]53577382-plumage-de-la-roue-du-paon-en-paradeft160_medium.jpg2016-10-06 11:07 168K 
[IMG]53577383-the-fun-times-of-childhoodft160_medium.jpg2016-10-06 11:03 196K 
[IMG]53577389-sailing-shipft160_medium.jpg2016-10-06 11:04 185K 
[IMG]53577392-bauarbeiter-eisenflechterft160_medium.jpg2016-10-06 11:01 205K 
[IMG]53577406-picture-frameft160_medium.jpg2016-10-06 11:05 168K 
[IMG]53577410-beautiful-young-indian-woman-in-traditional-clothing-isolated-oft160_medium.jpg2016-10-06 11:05 201K 
[IMG]53577424-seattle-washington-cityscape-with-mt-rainier-timelapse-at-sunsetft160_medium.jpg2016-10-06 11:03 134K 
[IMG]53577427-bauarbeiter-eisenflechterft160_medium.jpg2016-10-06 11:01 209K 
[IMG]53577431-blue-background-or-textureft160_medium.jpg2016-10-06 11:03 97K 
[IMG]53577432-blue-background-or-textureft160_medium.jpg2016-10-06 11:01 99K 
[IMG]53577436-metal-background-with-metal-nameplate-for-writing-ft160_medium.jpg2016-10-06 11:05 148K 
[IMG]53577440-kleiner-junge-mit-maedchen-beim-roller-fahrenft160_medium.jpg2016-10-06 11:07 228K 
[IMG]53577444-eisenflechter-bauarbeiterft160_medium.jpg2016-10-06 11:05 212K 
[IMG]53577446-fliegende-hexeft160_medium.jpg2016-10-06 11:08 159K 
[IMG]53577454-rusty-metal-plate-on-a-wall-design-template-ft160_medium.jpg2016-10-06 11:05 158K 
[IMG]53577458-metal-background-with-metal-nameplate-for-writing-ft160_medium.jpg2016-10-06 11:08 174K 
[IMG]53577466-metal-background-with-gold-nameplate-for-writing-ft160_medium.jpg2016-10-06 11:02 197K 
[IMG]53577492-beautiful-young-indian-woman-in-traditional-clothingft160_medium.jpg2016-10-06 11:04 207K 
[IMG]53577493-background-of-gold-worn-insertsft160_medium.jpg2016-10-06 11:02 249K 
[IMG]53577494-yellow-background-with-gold-shabby-inserts-and-with-ribbonft160_medium.jpg2016-10-06 11:04 210K 
[IMG]53577495-polygonale-steinplattenft160_medium.jpg2016-10-06 11:03 157K 
[IMG]53577498-fede-nuzialeft160_medium.jpg2016-10-06 11:06 132K 
[IMG]53577502-old-concrete-wall-with-old-nameplate-design-templateft160_medium.jpg2016-10-06 11:05 173K 
[IMG]53577503-old-concrete-wall-with-old-nameplate-design-templateft160_medium.jpg2016-10-06 11:03 178K 
[IMG]53577512-old-concrete-wall-with-old-nameplate-design-templateft160_medium.jpg2016-10-06 11:08 174K 
[IMG]53577518-flamant-rose-de-cubaft160_medium.jpg2016-10-06 11:03 176K 
[IMG]53577519-vector-logo-seaside-holidaysft160_medium.jpg2016-10-06 11:05 147K 
[IMG]53577543-subwayft160_medium.jpg2016-10-06 11:06 170K 
[IMG]53577570-blue-sapphire-high-resolution-3d-image-ft160_medium.jpg2016-10-06 11:05 169K 
[IMG]53577580-diamond-jewel-high-resolution-3d-image-ft160_medium.jpg2016-10-06 11:01 162K 
[IMG]53577587-alexandrite-high-resolution-3d-image-ft160_medium.jpg2016-10-06 11:03 158K 
[IMG]53577593-aquamarineft160_medium.jpg2016-10-06 11:05 159K 
[IMG]53577595-beautiful-young-indian-woman-in-traditional-clothing-isolated-oft160_medium.jpg2016-10-06 11:03 181K 
[IMG]53577600-abstract-funny-glowing-shape-with-lights-and-dark-backgroundft160_medium.jpg2016-10-06 11:03 163K 
[IMG]53577610-abstract-square-glowing-circles-with-lights-and-dark-backgroundft160_medium.jpg2016-10-06 11:03 185K 
[IMG]53577630-abstract-rainbow-glowing-circles-with-lights-and-dark-backgroundft160_medium.jpg2016-10-06 11:02 163K 
[IMG]53577632-ducks-mating-on-the-pondft160_medium.jpg2016-10-06 11:07 143K 
[IMG]53577649-unicornft160_medium.jpg2016-10-06 11:04 158K 
[IMG]53577652-bratkartoffeln-in-einer-pfanne-mit-rosmarinft160_medium.jpg2016-10-06 11:08 206K 
[IMG]53577675-emerald-high-resolution-3d-image-ft160_medium.jpg2016-10-06 11:06 166K 
[IMG]53577682-reel-with-fiber-optic-cable-on-winding-machineft160_medium.jpg2016-10-06 11:04 131K 
[IMG]53577694-kraeuterkisteft160_medium.jpg2016-10-06 11:03 178K 
[IMG]53577725-ruby-or-rodolite-gemstone-high-resolution-3d-image-ft160_medium.jpg2016-10-06 11:03 159K 
[IMG]53577730-kleiner-mann-im-feldft160_medium.jpg2016-10-06 11:06 203K 
[IMG]53577736-peridot-high-resolution-3d-image-ft160_medium.jpg2016-10-06 11:05 158K 
[IMG]53577748-reel-with-fiber-optic-cable-on-winding-machineft160_medium.jpg2016-10-06 11:04 150K 
[IMG]53577776-beautiful-young-indian-woman-in-traditional-clothingft160_medium.jpg2016-10-06 11:02 188K 
[IMG]53577787-dried-red-hot-chilli-pepper-on-white-backgroundft160_medium.jpg2016-10-06 11:06 179K 
[IMG]53577789-yellow-sapphire-high-resolution-3d-image-ft160_medium.jpg2016-10-06 11:03 158K 
[IMG]53577797-portrait-of-a-cute-little-girl-smelling-a-daisyft160_medium.jpg2016-10-06 11:08 150K 
[IMG]53577800-the-beauty-wedding-ringft160_medium.jpg2016-10-06 11:02 144K 
[IMG]53577806-the-beauty-wedding-ringft160_medium.jpg2016-10-06 11:06 139K 
[IMG]53577813-vector-furniture-iconsft160_medium.jpg2016-10-06 11:03 175K 
[IMG]53577814-the-beauty-wedding-ringft160_medium.jpg2016-10-06 11:03 151K 
[IMG]53577825-blinking-leds-on-optical-converters-showing-big-trafficft160_medium.jpg2016-10-06 11:04 169K 
[IMG]53577858-little-girl-looking-in-the-mirrorft160_medium.jpg2016-10-06 11:07 182K 
[IMG]53577860-connected-switches-in-technology-room-with-patch-cablesft160_medium.jpg2016-10-06 11:06 145K 
[IMG]53577867-the-beauty-wedding-ringft160_medium.jpg2016-10-06 11:01 161K 
[IMG]53577878-datacenter-with-high-speed-communication-techmologyft160_medium.jpg2016-10-06 11:05 136K 
[IMG]53577890-avilaft160_medium.jpg2016-10-06 11:05 199K 
[IMG]53577891-crepuscule-sur-monument-valleyft160_medium.jpg2016-10-06 11:07 142K 
[IMG]53577905-the-beauty-wedding-ringft160_medium.jpg2016-10-06 11:03 129K 
[IMG]53577912-the-beauty-wedding-ringft160_medium.jpg2016-10-06 11:03 138K 
[IMG]53577919-the-beauty-wedding-ringft160_medium.jpg2016-10-06 11:06 161K 
[IMG]53577923-the-beauty-wedding-ringft160_medium.jpg2016-10-06 11:04 170K 
[IMG]53577931-bratkartoffeln-in-einer-pfanne-mit-rosmarinft160_medium.jpg2016-10-06 11:03 203K 
[IMG]53577933-gold-hintergrundft160_medium.jpg2016-10-06 11:04 175K 
[IMG]53577935-wappen-mit-schild-und-kroneft160_medium.jpg2016-10-06 11:07 159K 
[IMG]53577942-beautiful-girl-with-daisies-summer-fun-conceptft160_medium.jpg2016-10-06 11:01 177K 
[IMG]53577945-2014ft160_medium.jpg2016-10-06 11:03 141K 
[IMG]53577946-the-beauty-wedding-ringft160_medium.jpg2016-10-06 11:05 153K 
[IMG]53577948-beautiful-young-indian-woman-in-traditional-clothingft160_medium.jpg2016-10-06 11:06 177K 
[IMG]53577951-the-beauty-wedding-ringft160_medium.jpg2016-10-06 11:03 144K 
[IMG]53577958-the-beauty-wedding-ringft160_medium.jpg2016-10-06 11:07 152K 
[IMG]53577976-price-tag-blank-price-tag-for-copy-spaceft160_medium.jpg2016-10-06 11:05 118K 
[IMG]53578001-family-trip-on-bicycles-mother-with-two-sons-riding-bikeft160_medium.jpg2016-10-06 11:08 149K 
[IMG]53578010-price-tag-blank-price-tag-for-copy-spaceft160_medium.jpg2016-10-06 11:03 121K 
[IMG]53578024-texture-of-stone-with-gold-trim-on-grunge-yellow-backgroundft160_medium.jpg2016-10-06 11:04 167K 
[IMG]53578033-sheep-in-high-green-grass-meadowft160_medium.jpg2016-10-06 11:04 157K 
[IMG]53578034-panorama-zillertalft160_medium.jpg2016-10-06 11:07 136K 
[IMG]53578055-rosenkaefer-auf-margeritenblueteft160_medium.jpg2016-10-06 11:07 145K 
[IMG]53578057-abstract-romantic-backgroundft160_medium.jpg2016-10-06 11:05 157K 
[IMG]53578060-green-money-symbol-with-transparency-and-lightsft160_medium.jpg2016-10-06 11:01 149K 
[IMG]53578067-exclamation-marksft160_medium.jpg2016-10-06 11:04 136K 
[IMG]53578083-they-have-made-a-right-vehical-choise-young-car-salesman-givingft160_medium.jpg2016-10-06 11:06 172K 
[IMG]53578088-this-model-comes-with-added-features-handsome-young-salesman-shft160_medium.jpg2016-10-06 11:02 187K 
[IMG]53578091-cherry-tomatoesft160_medium.jpg2016-10-06 11:05 153K 
[IMG]53578098-chat-bubbleft160_medium.jpg2016-10-06 11:04 138K 
[IMG]53578141-vintage-gold-texture-seamless-patternft160_medium.jpg2016-10-06 11:03 388K 
[IMG]53578144-abstract-seamless-pattern-blue-fabric-ornamentft160_medium.jpg2016-10-06 11:07 356K 
[IMG]53578147-bull-headft160_medium.jpg2016-10-06 11:04 116K 
[IMG]53578155-bull-signft160_medium.jpg2016-10-06 11:05 114K 
[IMG]53578161-rosenkaefer-auf-margeritenblueteft160_medium.jpg2016-10-06 11:03 153K 
[IMG]53578172-car-illustrationft160_medium.jpg2016-10-06 11:05 124K 
[IMG]53578222-beautiful-blossom-womanft160_medium.jpg2016-10-06 11:05 225K 
[IMG]53578228-portrait-of-leopardatft160_medium.jpg2016-10-06 11:02 212K 
[IMG]53578231-ducks-on-the-pond-in-the-park-slow-motionft160_medium.jpg2016-10-06 11:03 133K 
[IMG]53578237-roasted-chicken-wings-on-plateft160_medium.jpg2016-10-06 11:04 179K 
[IMG]53578245-bratkartoffeln-in-einer-pfanne-mit-rosmarinft160_medium.jpg2016-10-06 11:02 185K 
[IMG]53578248-tampon-100-serviceft160_medium.jpg2016-10-06 11:05 208K 
[IMG]53578251-race-carft160_medium.jpg2016-10-06 11:04 113K 
[IMG]53578293-city-bannersft160_medium.jpg2016-10-06 11:08 163K 
[IMG]53578301-bundestagswahl-2013ft160_medium.jpg2016-10-06 11:01 158K 
[IMG]53578306-bratkartoffeln-in-einer-pfanne-mit-rosmarinft160_medium.jpg2016-10-06 11:03 185K 
[IMG]53578319-black-lace-backgroundft160_medium.jpg2016-10-06 11:04 220K 
[IMG]53578338-beverage-on-bedft160_medium.jpg2016-10-06 11:05 148K 
[IMG]53578340-buildings-under-construction-and-cranes-under-a-blue-sky-ft160_medium.jpg2016-10-06 11:06 152K 
[IMG]53578347-pu-erh-tea-aged-in-tangerine-and-green-teaft160_medium.jpg2016-10-06 11:02 249K 
[IMG]53578355-angry-worker-screaming-into-the-phoneft160_medium.jpg2016-10-06 11:04 177K 
[IMG]53578359-grungy-wood-backgroundft160_medium.jpg2016-10-06 11:05 165K 
[IMG]53578362-spices-in-bottlesft160_medium.jpg2016-10-06 11:02 147K 
[IMG]53578368-technology-of-the-business-worldft160_medium.jpg2016-10-06 11:03 143K 
[IMG]53578374-chat-bubbleft160_medium.jpg2016-10-06 11:04 127K 
[IMG]53578383-brown-bears-in-the-carpathians-ft160_medium.jpg2016-10-06 11:07 148K 
[IMG]53578387-women-in-sunglassesft160_medium.jpg2016-10-06 11:01 245K 
[IMG]53578389-collection-of-vintage-retro-bakery-labels-badges-and-ribbonsft160_medium.jpg2016-10-06 11:06 233K 
[IMG]53578392-now-her-dream-comes-true-car-salesman-giving-the-key-of-the-newft160_medium.jpg2016-10-06 11:02 188K 
[IMG]53578394-chat-bubbleft160_medium.jpg2016-10-06 11:05 127K 
[IMG]53578395-beverage-on-bedft160_medium.jpg2016-10-06 11:05 150K 
[IMG]53578409-chat-bubbleft160_medium.jpg2016-10-06 11:08 126K 
[IMG]53578422-evening-landscape-in-the-mountains-ukraine-ft160_medium.jpg2016-10-06 11:07 181K 
[IMG]53578424-beverage-on-bedft160_medium.jpg2016-10-06 11:03 142K 
[IMG]53578437-beautiful-sexy-brunette-woman-on-the-bedft160_medium.jpg2016-10-06 11:05 153K 
[IMG]53578438-bratkartoffeln-in-einer-pfanne-mit-rosmarinft160_medium.jpg2016-10-06 11:07 207K 
[IMG]53578449-beautiful-sexy-lingerie-woman-on-the-bedft160_medium.jpg2016-10-06 11:04 149K 
[IMG]53578452-clavier-100-serviceft160_medium.jpg2016-10-06 11:01 147K 
[IMG]53578457-beautiful-sexy-brunette-woman-on-the-bedft160_medium.jpg2016-10-06 11:07 159K 
[IMG]53578482-rising-graph-with-dollarft160_medium.jpg2016-10-06 11:05 124K 
[IMG]53578487-seamless-red-clay-roof-tiles-ft160_medium.jpg2016-10-06 11:05 232K 
[IMG]53578523-beverage-on-bedft160_medium.jpg2016-10-06 11:04 151K 
[IMG]53578527-a-woman-walking-on-the-beachft160_medium.jpg2016-10-06 11:01 169K 
[IMG]53578528-a-woman-walking-on-the-beachft160_medium.jpg2016-10-06 11:05 185K 
[IMG]53578543-beautiful-girl-is-in-fashion-style-posingft160_medium.jpg2016-10-06 11:05 136K 
[IMG]53578547-beautiful-girl-is-in-fashion-style-on-dark-backgroundft160_medium.jpg2016-10-06 11:01 147K 
[IMG]53578548-fashion-model-in-fashion-dress-sitting-chair-posingft160_medium.jpg2016-10-06 11:05 154K 
[IMG]53578555-coloring-alphabet-for-kids-cft160_medium.jpg2016-10-06 11:04 149K 
[IMG]53578561-coloring-alphabet-for-kids-cft160_medium.jpg2016-10-06 11:04 151K 
[IMG]53578563-two-sexy-girls-in-lingerie-on-the-bedft160_medium.jpg2016-10-06 11:06 186K 
[IMG]53578574-portrait-sheep-sunny-day-in-meadowft160_medium.jpg2016-10-06 11:05 165K 
[IMG]53578575-sexy-lesbian-couple-in-lingerie-embracingft160_medium.jpg2016-10-06 11:01 192K 
[IMG]53578581-two-girlfriends-giving-each-other-massageft160_medium.jpg2016-10-06 11:06 189K 
[IMG]53578586-two-girlfriends-giving-each-other-massageft160_medium.jpg2016-10-06 11:06 182K 
[IMG]53578595-coloring-alphabet-for-kids-hft160_medium.jpg2016-10-06 11:03 147K 
[IMG]53578599-portrait-sheep-green-grass-meadowft160_medium.jpg2016-10-06 11:02 156K 
[IMG]53578604-coloring-alphabet-for-kids-jft160_medium.jpg2016-10-06 11:07 143K 
[IMG]53578608-coloring-alphabet-for-kids-kft160_medium.jpg2016-10-06 11:05 160K 
[IMG]53578611-two-girlfriends-giving-each-other-massageft160_medium.jpg2016-10-06 11:03 170K 
[IMG]53578612-cute-giraffe-cartoonft160_medium.jpg2016-10-06 11:04 129K 
[IMG]53578613-assumption-cathedral-in-vladimir-russiaft160_medium.jpg2016-10-06 11:04 167K 
[IMG]53578615-cute-elephant-cartoonft160_medium.jpg2016-10-06 11:05 147K 
[IMG]53578617-coloring-alphabet-for-kids-kft160_medium.jpg2016-10-06 11:03 155K 
[IMG]53578618-cute-elephant-cartoonft160_medium.jpg2016-10-06 11:03 144K 
[IMG]53578625-coloring-alphabet-for-kids-lft160_medium.jpg2016-10-06 11:03 147K 
[IMG]53578626-lion-cartoonft160_medium.jpg2016-10-06 11:07 148K 
[IMG]53578636-coloring-alphabet-for-kids-mft160_medium.jpg2016-10-06 11:01 144K 
[IMG]53578640-coloring-alphabet-for-kids-oft160_medium.jpg2016-10-06 11:04 145K 
[IMG]53578671-coloring-alphabet-for-kids-uft160_medium.jpg2016-10-06 11:04 144K 
[IMG]53578672-coloring-alphabet-for-kids-wft160_medium.jpg2016-10-06 11:02 153K 
[IMG]53578673-coloring-alphabet-for-kids-wft160_medium.jpg2016-10-06 11:01 147K 
[IMG]53578678-real-estate-button-setft160_medium.jpg2016-10-06 11:06 196K 
[IMG]53578681-party-button-setft160_medium.jpg2016-10-06 11:04 195K 
[IMG]53578690-cognacglasft160_medium.jpg2016-10-06 11:04 119K 
[IMG]53578693-figur-aus-knetmasseft160_medium.jpg2016-10-06 11:03 137K 
[IMG]53578694-borkum-collageft160_medium.jpg2016-10-06 11:07 201K 
[IMG]53578716ft160_medium.jpg2016-10-06 11:06 203K 
[IMG]53578718-old-press-machineft160_medium.jpg2016-10-06 11:02 178K 
[IMG]53578733-freigestellte-kiefer-vor-weissem-hintergrundft160_medium.jpg2016-10-06 11:04 158K 
[IMG]53578736-ducks-on-the-pond-in-the-park-slow-motionft160_medium.jpg2016-10-06 11:02 148K 
[IMG]53578737-firemanft160_medium.jpg2016-10-06 11:05 121K 
[IMG]53578742-firemanft160_medium.jpg2016-10-06 11:07 123K 
[IMG]53578775-booksft160_medium.jpg2016-10-06 11:02 152K 
[IMG]53578781-jetzt-reifen-wechseln-ft160_medium.jpg2016-10-06 11:04 160K 
[IMG]53578784-zwei-frauen-bei-einer-radtourft160_medium.jpg2016-10-06 11:03 181K 
[IMG]53578786-male-portraitft160_medium.jpg2016-10-06 11:04 133K 
[IMG]53578789-various-pebble-stones-textureft160_medium.jpg2016-10-06 11:02 225K 
[IMG]53578808-colorful-flower-bouquet-from-roses-isolated-on-white-background-ft160_medium.jpg2016-10-06 11:04 149K 
[IMG]53578819-radtour-aufs-landft160_medium.jpg2016-10-06 11:03 194K 
[IMG]53578824-freigestellte-eiche-vor-weissem-hintergrundft160_medium.jpg2016-10-06 11:02 192K 
[IMG]53578847-church-of-st-peter-and-paul-in-peterhof-st-petersburg-russiaft160_medium.jpg2016-10-06 11:08 191K 
[IMG]53578860-freigestellte-kiefer-vor-weissem-hintergrundft160_medium.jpg2016-10-06 11:04 168K 
[IMG]53578863-unterwegs-mit-dem-radft160_medium.jpg2016-10-06 11:05 201K 
[IMG]53578867-business-hotel-roomft160_medium.jpg2016-10-06 11:04 151K 
[IMG]53578868-church-of-the-savior-on-spilled-blood-in-st-petersburg-russiaft160_medium.jpg2016-10-06 11:05 186K 
[IMG]53578883-schleifbandft160_medium.jpg2016-10-06 11:03 167K 
[IMG]53578888-beautiful-young-indian-woman-in-traditional-clothingft160_medium.jpg2016-10-06 11:03 183K 
[IMG]53578891-spider-net-vector-backgroundft160_medium.jpg2016-10-06 11:03 166K 
[IMG]53578914-icons-on-a-screenft160_medium.jpg2016-10-06 11:08 158K 
[IMG]53578925-bouton-internet-pourcentage-icon-redft160_medium.jpg2016-10-06 11:07 140K 
[IMG]53578926-blue-delivery-truck-icon-ft160_medium.jpg2016-10-06 11:03 163K 
[IMG]53578927-red-heart-button-ft160_medium.jpg2016-10-06 11:04 156K 
[IMG]53578928-ischia-lacco-amenoft160_medium.jpg2016-10-06 11:03 191K 
[IMG]53578929-blue-stock-exchange-icon-button-ft160_medium.jpg2016-10-06 11:07 179K 
[IMG]53578930-next-step-round-metal-box-with-red-arrowsft160_medium.jpg2016-10-06 11:06 196K 
[IMG]53578931-pink-blog-icon-button-ft160_medium.jpg2016-10-06 11:06 166K 
[IMG]53578941-gold-bars-on-white-backgroundft160_medium.jpg2016-10-06 11:04 134K 
[IMG]53578944-sexy-lips-with-cigarette-no-smoking-vector-buttonsft160_medium.jpg2016-10-06 11:03 142K 
[IMG]53578947-kreidetafel-i-love-youft160_medium.jpg2016-10-06 11:06 152K 
[IMG]53578952-gold-bars-on-white-backgroundft160_medium.jpg2016-10-06 11:08 118K 
[IMG]53578954-kreidetafel-richtig-bewerbenft160_medium.jpg2016-10-06 11:04 161K 
[IMG]53578955-pugne-italianeft160_medium.jpg2016-10-06 11:07 208K 
[IMG]53578981-alsfeld-fachwerk-in-hessenft160_medium.jpg2016-10-06 11:01 175K 
[IMG]53578990-kreidetafel-nachhilfeft160_medium.jpg2016-10-06 11:04 161K 
[IMG]53578992-gold-bars-on-white-backgroundft160_medium.jpg2016-10-06 11:07 123K 
[IMG]53578993-russische-kapelle-in-darmstadt-mathildenhoeheft160_medium.jpg2016-10-06 11:05 182K 
[IMG]53578996-stock-market-chartft160_medium.jpg2016-10-06 11:08 138K 
[IMG]53579003-kreidetafel-sparenft160_medium.jpg2016-10-06 11:06 158K 
[IMG]53579018-couple-of-gold-wedding-rings-on-white-backgroundft160_medium.jpg2016-10-06 11:08 153K 
[IMG]53579029-couple-of-gold-wedding-rings-on-white-backgroundft160_medium.jpg2016-10-06 11:03 168K 
[IMG]53579030-kreidetafel-100-prozentft160_medium.jpg2016-10-06 11:07 160K 
[IMG]53579038-illustration-of-vintage-retro-frame-with-restaurant-menu-designft160_medium.jpg2016-10-06 11:06 198K 
[IMG]53579042-colorful-umbrellasft160_medium.jpg2016-10-06 11:04 165K 
[IMG]53579051-freigestellte-kiefer-vor-weissem-hintergrundft160_medium.jpg2016-10-06 11:05 184K 
[IMG]53579078-freigestellter-ahorn-vor-weissem-hintergrundft160_medium.jpg2016-10-06 11:07 179K 
[IMG]53579084-lauriers-9000-en-orft160_medium.jpg2016-10-06 11:05 152K 
[IMG]53579114-kids-with-ice-skatesft160_medium.jpg2016-10-06 11:03 184K 
[IMG]53579116-birthday-dogft160_medium.jpg2016-10-06 11:05 142K 
[IMG]53579128-saint-basil-s-cathedral-in-moscow-russiaft160_medium.jpg2016-10-06 11:03 158K 
[IMG]53579130-birthday-dogft160_medium.jpg2016-10-06 11:07 151K 
[IMG]53579140-birthday-dogft160_medium.jpg2016-10-06 11:04 177K 
[IMG]53579141-historisches-rathaus-in-alsfeldft160_medium.jpg2016-10-06 11:07 158K 
[IMG]53579144-checking-color-balance-with-gray-cardft160_medium.jpg2016-10-06 11:02 143K 
[IMG]53579146-freigestellter-kirschbaum-vor-weissem-hintergrundft160_medium.jpg2016-10-06 11:04 193K 
[IMG]53579153-birthday-dogft160_medium.jpg2016-10-06 11:06 177K 
[IMG]53579170-i-m-the-coolest-skierft160_medium.jpg2016-10-06 11:08 140K 
[IMG]53579186-skiing-makes-me-happyft160_medium.jpg2016-10-06 11:07 197K 
[IMG]53579195-concurring-new-snow-landft160_medium.jpg2016-10-06 11:07 134K 
[IMG]53579196-skiing-maskft160_medium.jpg2016-10-06 11:03 143K 
[IMG]53579202-wedding-ringsft160_medium.jpg2016-10-06 11:05 135K 
[IMG]53579206-veduta-della-cattedrale-di-girona-spagnaft160_medium.jpg2016-10-06 11:03 165K 
[IMG]53579209-i-love-all-this-snowft160_medium.jpg2016-10-06 11:02 178K 
[IMG]53579210-chihuahuas-in-cosyft160_medium.jpg2016-10-06 11:04 151K 
[IMG]53579213-resting-in-snowft160_medium.jpg2016-10-06 11:06 168K 
[IMG]53579221-buddha-statue-in-chiang-mai-thailand-ft160_medium.jpg2016-10-06 11:07 151K 
[IMG]53579223-macro-shot-of-coffee-beans-on-natural-backgroundft160_medium.jpg2016-10-06 11:07 227K 
[IMG]53579227-festive-seamless-pattern-on-a-black-backgroundft160_medium.jpg2016-10-06 11:02 202K 
[IMG]53579229-happy-skier-in-on-the-ski-liftft160_medium.jpg2016-10-06 11:02 160K 
[IMG]53579231-snow-throwing-funft160_medium.jpg2016-10-06 11:04 155K 
[IMG]53579241-wedding-ringsft160_medium.jpg2016-10-06 11:04 141K 
[IMG]53579243-seafoodft160_medium.jpg2016-10-06 11:08 171K 
[IMG]53579246-lot-s-of-snow-is-good-for-skiingft160_medium.jpg2016-10-06 11:02 152K 
[IMG]53579248-ski-lift-seatft160_medium.jpg2016-10-06 11:02 153K 
[IMG]53579255-freigestellter-laubbaum-vor-weissem-hintergrundft160_medium.jpg2016-10-06 11:07 175K 
[IMG]53579259-skiing-in-mountains-is-so-beautifulft160_medium.jpg2016-10-06 11:08 159K 
[IMG]53579261-wedding-ringsft160_medium.jpg2016-10-06 11:05 150K 
[IMG]53579267-happy-mother-and-son-in-parkft160_medium.jpg2016-10-06 11:07 196K 
[IMG]53579276-kids-ski-lift-ft160_medium.jpg2016-10-06 11:07 168K 
[IMG]53579278-enjoying-mountain-skiingft160_medium.jpg2016-10-06 11:07 198K 
[IMG]53579285-conference-roomft160_medium.jpg2016-10-06 11:02 170K 
[IMG]53579289-wedding-ringsft160_medium.jpg2016-10-06 11:02 115K 
[IMG]53579298-wedding-ringsft160_medium.jpg2016-10-06 11:05 138K 
[IMG]53579300-junge-geschaeftsfrau-gluecklich-und-happy-im-bueroft160_medium.jpg2016-10-06 11:02 124K 
[IMG]53579301-rosenft160_medium.jpg2016-10-06 11:06 156K 
[IMG]53579307-wedding-ringsft160_medium.jpg2016-10-06 11:03 143K 
[IMG]53579309-right-pillft160_medium.jpg2016-10-06 11:07 164K 
[IMG]53579314-dad-throws-the-baby-at-sunsetft160_medium.jpg2016-10-06 11:02 140K 
[IMG]53579316-happy-mother-and-son-at-fieldft160_medium.jpg2016-10-06 11:04 198K 
[IMG]53579317-happy-mother-and-son-at-fieldft160_medium.jpg2016-10-06 11:06 192K 
[IMG]53579318-abstract-floral-backgroundft160_medium.jpg2016-10-06 11:08 151K 
[IMG]53579319-happy-mother-and-son-at-fieldft160_medium.jpg2016-10-06 11:04 182K 
[IMG]53579320-ischia-lacco-amenoft160_medium.jpg2016-10-06 11:07 157K 
[IMG]53579323-young-mother-breastfeeding-a-baby-in-natureft160_medium.jpg2016-10-06 11:08 194K 
[IMG]53579331-handschellenft160_medium.jpg2016-10-06 11:05 142K 
[IMG]53579332-neugierige-junge-frau-im-buero-isoliert-und-hoerbehindertft160_medium.jpg2016-10-06 11:04 114K 
[IMG]53579338-freigestellter-laubbaum-vor-weissem-hintergrundft160_medium.jpg2016-10-06 11:01 166K 
[IMG]53579345-wedding-ringsft160_medium.jpg2016-10-06 11:03 161K 
[IMG]53579355-wedding-ringsft160_medium.jpg2016-10-06 11:06 155K 
[IMG]53579363-frau-isoliert-und-gehoerlos-im-bueroft160_medium.jpg2016-10-06 11:04 121K 
[IMG]53579366-beautiful-young-indian-woman-in-traditional-clothingft160_medium.jpg2016-10-06 11:03 138K 
[IMG]53579379-diagram-made-of-pillsft160_medium.jpg2016-10-06 11:07 142K 
[IMG]53579385-rib-eye-steakft160_medium.jpg2016-10-06 11:06 180K 
[IMG]53579386-terminal-2-dublin-airport-ireland-opened-in-november-2010ft160_medium.jpg2016-10-06 11:05 163K 
[IMG]53579388-wedding-ringsft160_medium.jpg2016-10-06 11:05 137K 
[IMG]53579395-handschellenft160_medium.jpg2016-10-06 11:02 131K 
[IMG]53579404-wedding-ringsft160_medium.jpg2016-10-06 11:04 136K 
[IMG]53579413-schoene-lachende-junge-geschaeftsfrau-isoliert-mit-computerft160_medium.jpg2016-10-06 11:04 135K 
[IMG]53579414-one-special-drugft160_medium.jpg2016-10-06 11:07 123K 
[IMG]53579415-wedding-ringsft160_medium.jpg2016-10-06 11:04 140K 
[IMG]53579420-white-tablets-in-a-rowft160_medium.jpg2016-10-06 11:07 124K 
[IMG]53579421ft160_medium.jpg2016-10-06 11:06 160K 
[IMG]53579428-handschellenft160_medium.jpg2016-10-06 11:06 158K 
[IMG]53579432-tablets-under-lab-lightft160_medium.jpg2016-10-06 11:04 149K 
[IMG]53579433-53579433ft160_medium.jpg2016-10-06 11:03 172K 
[IMG]53579434-raw-vegetables-mix-vegetablesft160_medium.jpg2016-10-06 11:03 196K 
[IMG]53579439-stethoscope-and-pillsft160_medium.jpg2016-10-06 11:03 156K 
[IMG]53579444-happy-mother-and-son-outdoor-portraitft160_medium.jpg2016-10-06 11:05 199K 
[IMG]53579445-baby-yawningft160_medium.jpg2016-10-06 11:07 124K 
[IMG]53579447-raw-vegetables-mix-vegetablesft160_medium.jpg2016-10-06 11:07 200K 
[IMG]53579448-karrierefrau-isoliert-mit-laptop-und-daumen-nach-obenft160_medium.jpg2016-10-06 11:02 122K 
[IMG]53579456-happy-mother-and-son-in-parkft160_medium.jpg2016-10-06 11:02 191K 
[IMG]53579457-raw-vegetables-mix-vegetablesft160_medium.jpg2016-10-06 11:05 203K 
[IMG]53579458-injections-in-syringesft160_medium.jpg2016-10-06 11:05 139K 
[IMG]53579460-happy-mother-and-son-in-parkft160_medium.jpg2016-10-06 11:07 188K 
[IMG]53579466-cg-euro-coin-stacks-isolated-on-white-ft160_medium.jpg2016-10-06 11:02 127K 
[IMG]53579473-many-different-drugs-in-the-labft160_medium.jpg2016-10-06 11:08 157K 
[IMG]53579474-hochzeitsturm-in-darmstadt-auf-der-mathildenhoeheft160_medium.jpg2016-10-06 11:02 145K 
[IMG]53579476-stock-market-chartft160_medium.jpg2016-10-06 11:02 141K 
[IMG]53579485-glueckliche-junge-frau-bei-der-arbeit-im-buero-mit-laptopft160_medium.jpg2016-10-06 11:05 120K 
[IMG]53579490-cute-babyft160_medium.jpg2016-10-06 11:05 132K 
[IMG]53579492-wedding-ringsft160_medium.jpg2016-10-06 11:02 129K 
[IMG]53579497-different-drug-pills-scatteredft160_medium.jpg2016-10-06 11:03 164K 
[IMG]53579501-wedding-ringsft160_medium.jpg2016-10-06 11:05 137K 
[IMG]53579507-wedding-ringsft160_medium.jpg2016-10-06 11:02 137K 
[IMG]53579512-wedding-ringsft160_medium.jpg2016-10-06 11:06 139K 
[IMG]53579515-family-with-little-baby-boyft160_medium.jpg2016-10-06 11:01 178K 
[IMG]53579518-wedding-ringsft160_medium.jpg2016-10-06 11:06 139K 
[IMG]53579522-sun-over-a-wheat-fieldft160_medium.jpg2016-10-06 11:06 185K 
[IMG]53579534-two-tablets-on-blueft160_medium.jpg2016-10-06 11:07 117K 
[IMG]53579538-syringe-and-tabletsft160_medium.jpg2016-10-06 11:03 121K 
[IMG]53579547-bunte-reihenhaeuser-in-der-altstadt-zuerichft160_medium.jpg2016-10-06 11:05 219K 
[IMG]53579548-expensive-drugsft160_medium.jpg2016-10-06 11:06 121K 
[IMG]53579552-nuage-de-tags-productivite-rendement-efficacite-competitivite-ft160_medium.jpg2016-10-06 11:06 177K 
[IMG]53579558-teaching-to-eat-from-the-spoonft160_medium.jpg2016-10-06 11:08 148K 
[IMG]53579562-testing-drugs-in-laboratoryft160_medium.jpg2016-10-06 11:02 118K 
[IMG]53579566-handschellenft160_medium.jpg2016-10-06 11:05 143K 
[IMG]53579568-wedding-ringsft160_medium.jpg2016-10-06 11:05 140K 
[IMG]53579570-elongated-elaborately-carved-apex-of-gable-of-buddhist-temple-ft160_medium.jpg2016-10-06 11:05 156K 
[IMG]53579572-handschellenft160_medium.jpg2016-10-06 11:05 147K 
[IMG]53579575-wedding-ringsft160_medium.jpg2016-10-06 11:07 139K 
[IMG]53579579-flask-full-of-drugs-and-pillsft160_medium.jpg2016-10-06 11:04 152K 
[IMG]53579580-tablets-and-pills-from-lab-flaskft160_medium.jpg2016-10-06 11:08 158K 
[IMG]53579581-wedding-ringsft160_medium.jpg2016-10-06 11:05 137K 
[IMG]53579582ft160_medium.jpg2016-10-06 11:01 165K 
[IMG]53579584-wedding-ringsft160_medium.jpg2016-10-06 11:04 146K 
[IMG]53579585-young-beauty-wearing-pink-dressft160_medium.jpg2016-10-06 11:05 157K 
[IMG]53579591-weathered-stained-old-brick-wall-background-ft160_medium.jpg2016-10-06 11:05 154K 
[IMG]53579592-wedding-ringsft160_medium.jpg2016-10-06 11:04 147K 
[IMG]53579593-glass-full-of-pillsft160_medium.jpg2016-10-06 11:02 123K 
[IMG]53579598-pretty-smiling-girlft160_medium.jpg2016-10-06 11:03 152K 
[IMG]53579601-feuerwehrauto-auf-einsatzfahrtft160_medium.jpg2016-10-06 11:06 171K 
[IMG]53579607-wedding-ringsft160_medium.jpg2016-10-06 11:08 145K 
[IMG]53579612-young-beauty-wearing-pink-dressft160_medium.jpg2016-10-06 11:06 124K 
[IMG]53579614-classic-heraldic-design-with-coat-of-arms-and-shield-in-vintageft160_medium.jpg2016-10-06 11:06 222K 
[IMG]53579616-pretty-smiling-girlft160_medium.jpg2016-10-06 11:03 180K 
[IMG]53579618-weights-with-tablets-isolated-on-whiteft160_medium.jpg2016-10-06 11:03 132K 
[IMG]53579621-hochzeitsturm-in-darmstadt-auf-der-mathildenhoeheft160_medium.jpg2016-10-06 11:05 154K 
[IMG]53579624-girl-with-gunft160_medium.jpg2016-10-06 11:04 132K 
[IMG]53579626-secret-agentft160_medium.jpg2016-10-06 11:02 129K 
[IMG]53579637-medical-factory-productsft160_medium.jpg2016-10-06 11:05 170K 
[IMG]53579638-girl-with-gunft160_medium.jpg2016-10-06 11:07 148K 
[IMG]53579641-drugs-from-laboratory-flaskft160_medium.jpg2016-10-06 11:02 156K 
[IMG]53579643-raw-mushroomft160_medium.jpg2016-10-06 11:05 179K 
[IMG]53579647-beautiful-sexy-girl-holding-gunft160_medium.jpg2016-10-06 11:01 133K 
[IMG]53579648-drugs-with-different-medicineft160_medium.jpg2016-10-06 11:05 123K 
[IMG]53579649-belle-femme-avec-des-armes-a-feuft160_medium.jpg2016-10-06 11:03 134K 
[IMG]53579651-wedding-ringsft160_medium.jpg2016-10-06 11:06 146K 
[IMG]53579653-large-group-of-kids-together-on-snow-dayft160_medium.jpg2016-10-06 11:02 166K 
[IMG]53579654-sea-salt-and-soapft160_medium.jpg2016-10-06 11:07 191K 
[IMG]53579657-beautiful-sexy-girl-holding-gunft160_medium.jpg2016-10-06 11:07 138K 
[IMG]53579658-many-kids-together-on-snow-dayft160_medium.jpg2016-10-06 11:04 183K 
[IMG]53579659-wedding-ringsft160_medium.jpg2016-10-06 11:07 145K 
[IMG]53579665-girl-with-gunft160_medium.jpg2016-10-06 11:07 138K 
[IMG]53579666-spoon-full-of-pillsft160_medium.jpg2016-10-06 11:04 128K 
[IMG]53579671-wedding-ringsft160_medium.jpg2016-10-06 11:02 147K 
[IMG]53579674-sea-salt-and-soapft160_medium.jpg2016-10-06 11:05 194K 
[IMG]53579675-belle-femme-avec-des-armes-a-feuft160_medium.jpg2016-10-06 11:07 134K 
[IMG]53579677-tools-for-injury-healingft160_medium.jpg2016-10-06 11:05 126K 
[IMG]53579678-girl-with-gunft160_medium.jpg2016-10-06 11:08 132K 
[IMG]53579680-group-of-happy-kids-throwing-snowft160_medium.jpg2016-10-06 11:01 169K 
[IMG]53579681-wedding-ringsft160_medium.jpg2016-10-06 11:04 164K 
[IMG]53579686-wedding-ringsft160_medium.jpg2016-10-06 11:04 140K 
[IMG]53579688-woman-with-gunft160_medium.jpg2016-10-06 11:01 147K 
[IMG]53579690-girl-with-gunft160_medium.jpg2016-10-06 11:06 141K 
[IMG]53579691-beautiful-woman-with-pink-flowerft160_medium.jpg2016-10-06 11:06 144K 
[IMG]53579700-beautiful-sexy-girl-holding-gunft160_medium.jpg2016-10-06 11:07 125K 
[IMG]53579701-wedding-ringsft160_medium.jpg2016-10-06 11:05 140K 
[IMG]53579702-many-kids-with-ice-skatesft160_medium.jpg2016-10-06 11:07 190K 
[IMG]53579703-best-brand-new-drugft160_medium.jpg2016-10-06 11:08 113K 
[IMG]53579704-metallic-padlock-locked-and-unlocked-padlocksft160_medium.jpg2016-10-06 11:07 140K 
[IMG]53579707-re-enactment-of-the-battle-of-vitoria-spain-ft160_medium.jpg2016-10-06 11:05 191K 
[IMG]53579710-glove-with-pillsft160_medium.jpg2016-10-06 11:06 124K 
[IMG]53579711-beautiful-sexy-girl-holding-gunft160_medium.jpg2016-10-06 11:02 129K 
[IMG]53579712-wedding-ringsft160_medium.jpg2016-10-06 11:05 156K 
[IMG]53579714-leere-sektfloete-auf-weissem-hintergrundft160_medium.jpg2016-10-06 11:04 108K 
[IMG]53579715-four-girls-with-ice-skatesft160_medium.jpg2016-10-06 11:05 195K 
[IMG]53579717-young-beauty-wearing-pink-dressft160_medium.jpg2016-10-06 11:03 128K 
[IMG]53579724-young-beauty-wearing-pink-dressft160_medium.jpg2016-10-06 11:06 141K 
[IMG]53579727-young-beauty-wearing-pink-dressft160_medium.jpg2016-10-06 11:01 143K 
[IMG]53579729-baked-meatft160_medium.jpg2016-10-06 11:03 189K 
[IMG]53579733-green-information-icon-button-ft160_medium.jpg2016-10-06 11:04 160K 
[IMG]53579734ft160_medium.jpg2016-10-06 11:04 152K 
[IMG]53579737-green-help-icon-button-ft160_medium.jpg2016-10-06 11:03 162K 
[IMG]53579739-pink-faq-icon-button-ft160_medium.jpg2016-10-06 11:03 165K 
[IMG]53579741-baked-meatft160_medium.jpg2016-10-06 11:03 200K 
[IMG]53579747-young-woman-smoking-electronic-cigaretteft160_medium.jpg2016-10-06 11:07 146K 
[IMG]53579748-terminal-2-dublin-airport-ireland-opened-in-november-2010ft160_medium.jpg2016-10-06 11:08 182K 
[IMG]53579752-young-woman-smoking-electronic-cigaretteft160_medium.jpg2016-10-06 11:07 138K 
[IMG]53579753-dunkler-innenraumft160_medium.jpg2016-10-06 11:04 152K 
[IMG]53579761-young-woman-smoking-electronic-cigaretteft160_medium.jpg2016-10-06 11:06 134K 
[IMG]53579766-four-happy-friends-with-snowboardsft160_medium.jpg2016-10-06 11:04 171K 
[IMG]53579767-young-beauty-wearing-pink-dressft160_medium.jpg2016-10-06 11:06 134K 
[IMG]53579769-leeres-cognacglas-auf-weissem-hintergrundft160_medium.jpg2016-10-06 11:06 116K 
[IMG]53579772-student-on-vacation-with-snowboardsft160_medium.jpg2016-10-06 11:03 149K 
[IMG]53579775-hazelnutsft160_medium.jpg2016-10-06 11:04 182K 
[IMG]53579779-pretty-smiling-girlft160_medium.jpg2016-10-06 11:06 138K 
[IMG]53579780-young-woman-smoking-electronic-cigaretteft160_medium.jpg2016-10-06 11:05 154K 
[IMG]53579783-happy-snowboard-womanft160_medium.jpg2016-10-06 11:06 156K 
[IMG]53579788-terminal-2-dublin-airport-ireland-opened-in-november-2010ft160_medium.jpg2016-10-06 11:04 174K 
[IMG]53579791-jumping-snowboardersft160_medium.jpg2016-10-06 11:03 176K 
[IMG]53579796-young-beauty-wearing-pink-dressft160_medium.jpg2016-10-06 11:06 165K 
[IMG]53579802-young-beauty-wearing-pink-dressft160_medium.jpg2016-10-06 11:06 164K 
[IMG]53579803-two-brothers-having-fun-on-winter-dayft160_medium.jpg2016-10-06 11:06 167K 
[IMG]53579808-pretty-smiling-girlft160_medium.jpg2016-10-06 11:05 164K 
[IMG]53579819-cute-snowboard-man-jumpingft160_medium.jpg2016-10-06 11:04 147K 
[IMG]53579824-leeres-weinglas-auif-weissem-hintergrundft160_medium.jpg2016-10-06 11:04 111K 
[IMG]53579832-pretty-smiling-girlft160_medium.jpg2016-10-06 11:07 154K 
[IMG]53579833-hintergrund-mit-bunten-knetstangenft160_medium.jpg2016-10-06 11:04 179K 
[IMG]53579844-baustelle-baugeruest-werkzeuge-und-mehr-1ft160_medium.jpg2016-10-06 11:02 195K 
[IMG]53579847-terminal-2-dublin-airport-ireland-opened-in-november-2010ft160_medium.jpg2016-10-06 11:03 182K 
[IMG]53579853-mains-de-la-femme-attachee-avec-une-cordeft160_medium.jpg2016-10-06 11:07 145K 
[IMG]53579862-portrait-de-la-jeune-femme-avec-ventilateurft160_medium.jpg2016-10-06 11:06 163K 
[IMG]53579866-jeune-femme-avec-ventilateurft160_medium.jpg2016-10-06 11:03 157K 
[IMG]53579871-portrait-de-la-jeune-femme-avec-ventilateurft160_medium.jpg2016-10-06 11:05 164K 
[IMG]53579873-collection-of-retro-stickers-premium-and-high-qualityft160_medium.jpg2016-10-06 11:05 264K 
[IMG]53579875-conference-roomft160_medium.jpg2016-10-06 11:06 132K 
[IMG]53579877-baconft160_medium.jpg2016-10-06 11:06 190K 
[IMG]53579881-tomateft160_medium.jpg2016-10-06 11:01 154K 
[IMG]53579885-tomateft160_medium.jpg2016-10-06 11:07 154K 
[IMG]53579887-re-enactment-of-the-battle-of-vitoria-spain-ft160_medium.jpg2016-10-06 11:02 223K 
[IMG]53579888-set-of-laboratory-glassware-filled-with-multicolored-liquids-ft160_medium.jpg2016-10-06 11:05 121K 
[IMG]53579890-tomateft160_medium.jpg2016-10-06 11:04 135K 
[IMG]53579891-conference-roomft160_medium.jpg2016-10-06 11:07 144K 
[IMG]53579892-kuerbis-herbstlaub-und-kastanieft160_medium.jpg2016-10-06 11:07 130K 
[IMG]53579894-herbstlaubft160_medium.jpg2016-10-06 11:06 143K 
[IMG]53579895-businesswoman-with-cell-phoneft160_medium.jpg2016-10-06 11:04 154K 
[IMG]53579900-baustelle-baugeruest-werkzeuge-und-mehr-2ft160_medium.jpg2016-10-06 11:03 229K 
[IMG]53579901-jeune-femme-avec-ventilateurft160_medium.jpg2016-10-06 11:07 186K 
[IMG]53579903-beautiful-young-indian-woman-in-traditional-clothingft160_medium.jpg2016-10-06 11:03 184K 
[IMG]53579904-femme-avec-fanft160_medium.jpg2016-10-06 11:07 182K 
[IMG]53579909-woman-behind-fanft160_medium.jpg2016-10-06 11:04 160K 
[IMG]53579911-sexy-girl-behind-fanft160_medium.jpg2016-10-06 11:07 167K 
[IMG]53579914-travel-button-setft160_medium.jpg2016-10-06 11:01 192K 
[IMG]53579918-sexy-eyesft160_medium.jpg2016-10-06 11:05 149K 
[IMG]53579928-young-beauty-wearing-pink-dressft160_medium.jpg2016-10-06 11:05 170K 
[IMG]53579933-young-beauty-wearing-pink-dressft160_medium.jpg2016-10-06 11:08 161K 
[IMG]53579936-successful-businesswoman-with-cell-phoneft160_medium.jpg2016-10-06 11:03 152K 
[IMG]53579946-amourft160_medium.jpg2016-10-06 11:06 149K 
[IMG]53579952-young-beauty-wearing-pink-dressft160_medium.jpg2016-10-06 11:02 146K 
[IMG]53579956-piggy-bank-plaster-and-cash-injectionft160_medium.jpg2016-10-06 11:03 110K 
[IMG]53579959-beautyft160_medium.jpg2016-10-06 11:05 148K 
[IMG]53579962-baustelle-baugeruest-werkzeuge-und-mehr-3ft160_medium.jpg2016-10-06 11:08 201K 
[IMG]53579963-sammlung-bunte-buttons-mit-labelft160_medium.jpg2016-10-06 11:06 155K 
[IMG]53579977-goldene-kugel-auf-dem-eckturmft160_medium.jpg2016-10-06 11:06 200K 
[IMG]53579981-brautpaarft160_medium.jpg2016-10-06 11:06 189K 
[IMG]53579982-young-beauty-wearing-pink-dressft160_medium.jpg2016-10-06 11:04 150K 
[IMG]53579984-young-beauty-wearing-pink-dressft160_medium.jpg2016-10-06 11:06 165K 
[IMG]53579988-young-beauty-wearing-pink-dressft160_medium.jpg2016-10-06 11:06 162K 
[IMG]53579993-young-beauty-wearing-pink-dressft160_medium.jpg2016-10-06 11:08 162K 
[IMG]53580007-young-beauty-wearing-pink-dressft160_medium.jpg2016-10-06 11:02 169K 
[IMG]53580009-chair-isolatedft160_medium.jpg2016-10-06 11:05 155K 
[IMG]53580010-conference-roomft160_medium.jpg2016-10-06 11:04 166K 
[IMG]53580017-young-beauty-wearing-pink-dressft160_medium.jpg2016-10-06 11:06 168K 
[IMG]53580019-young-beauty-wearing-pink-dressft160_medium.jpg2016-10-06 11:06 164K 
[IMG]53580021-young-beauty-wearing-pink-dressft160_medium.jpg2016-10-06 11:02 162K 
[IMG]53580027-young-beauty-wearing-pink-dressft160_medium.jpg2016-10-06 11:04 160K 
[IMG]53580030-gold-bars-on-white-backgroundft160_medium.jpg2016-10-06 11:02 134K 
[IMG]53580035-young-beauty-wearing-pink-dressft160_medium.jpg2016-10-06 11:03 166K 
[IMG]53580037-young-beauty-wearing-pink-dressft160_medium.jpg2016-10-06 11:02 165K 
[IMG]53580038-the-doha-corniche-is-a-waterfront-promenade-in-doha-qatarft160_medium.jpg2016-10-06 11:04 175K 
[IMG]53580043-border-with-australian-money-bank-notesft160_medium.jpg2016-10-06 11:05 143K 
[IMG]53580047-blonde-frau-haelt-eine-uhrft160_medium.jpg2016-10-06 11:07 146K 
[IMG]53580057-young-beauty-wearing-pink-dressft160_medium.jpg2016-10-06 11:06 168K 
[IMG]53580063-young-beauty-wearing-pink-dressft160_medium.jpg2016-10-06 11:03 164K 
[IMG]53580066-homosexuell-lesbisch-frau-ft160_medium.jpg2016-10-06 11:04 122K 
[IMG]53580067-young-beauty-wearing-pink-dressft160_medium.jpg2016-10-06 11:04 171K 
[IMG]53580068-young-beauty-wearing-pink-dressft160_medium.jpg2016-10-06 11:01 163K 
[IMG]53580079-mann-frau-geschlecht-ehe-ft160_medium.jpg2016-10-06 11:06 124K 
[IMG]53580080-young-beauty-wearing-pink-dressft160_medium.jpg2016-10-06 11:02 157K 
[IMG]53580082-young-beauty-wearing-pink-dressft160_medium.jpg2016-10-06 11:05 164K 
[IMG]53580092-young-beauty-wearing-pink-dressft160_medium.jpg2016-10-06 11:03 166K 
[IMG]53580098-young-beauty-wearing-pink-dressft160_medium.jpg2016-10-06 11:06 173K 
[IMG]53580104-young-beauty-wearing-pink-dressft160_medium.jpg2016-10-06 11:03 169K 
[IMG]53580108-bean-with-sauceft160_medium.jpg2016-10-06 11:04 175K 
[IMG]53580110-stunning-brunette-beautyft160_medium.jpg2016-10-06 11:07 166K 
[IMG]53580118-eyeglasses-woman-using-phoneft160_medium.jpg2016-10-06 11:05 156K 
[IMG]53580120-sexy-femmeft160_medium.jpg2016-10-06 11:06 175K 
[IMG]53580121-metro-boulot-dodo-envie-de-vacances-dans-le-metroft160_medium.jpg2016-10-06 11:02 148K 
[IMG]53580122-young-beauty-wearing-pink-dressft160_medium.jpg2016-10-06 11:05 174K 
[IMG]53580123-young-beauty-wearing-pink-dressft160_medium.jpg2016-10-06 11:02 170K 
[IMG]53580128-young-beauty-wearing-pink-dressft160_medium.jpg2016-10-06 11:06 169K 
[IMG]53580133-young-beauty-wearing-pink-dressft160_medium.jpg2016-10-06 11:04 162K 
[IMG]53580136-young-beauty-wearing-pink-dressft160_medium.jpg2016-10-06 11:07 163K 
[IMG]53580141-young-beauty-wearing-pink-dressft160_medium.jpg2016-10-06 11:02 171K 
[IMG]53580148-baustelle-baugeruest-werkzeuge-und-mehr-7ft160_medium.jpg2016-10-06 11:04 222K 
[IMG]53580150-collection-of-vector-heraldic-elements-for-designft160_medium.jpg2016-10-06 11:07 265K 
[IMG]53580154-pretty-smiling-girl-posing-outdoorft160_medium.jpg2016-10-06 11:05 172K 
[IMG]53580155-smiling-business-woman-with-tablet-thumb-up-show-ft160_medium.jpg2016-10-06 11:07 142K 
[IMG]53580161-young-beauty-wearing-pink-dressft160_medium.jpg2016-10-06 11:04 168K 
[IMG]53580174-pretty-smiling-girl-relaxing-outdoorft160_medium.jpg2016-10-06 11:06 168K 
[IMG]53580189-young-beauty-wearing-pink-dressft160_medium.jpg2016-10-06 11:04 170K 
[IMG]53580192-young-beauty-wearing-pink-dressft160_medium.jpg2016-10-06 11:06 167K 
[IMG]53580196-young-beauty-wearing-pink-dressft160_medium.jpg2016-10-06 11:07 157K 
[IMG]53580204-young-beauty-wearing-pink-dressft160_medium.jpg2016-10-06 11:06 172K 
[IMG]53580217-venice-italy-ft160_medium.jpg2016-10-06 11:02 186K 
[IMG]53580219-venice-italy-ft160_medium.jpg2016-10-06 11:06 203K 
[IMG]53580223-venice-italy-ft160_medium.jpg2016-10-06 11:07 231K 
[IMG]53580224-venice-italy-ft160_medium.jpg2016-10-06 11:06 199K 
[IMG]53580228-frau-mit-koffer-zeig-mit-dem-fingerft160_medium.jpg2016-10-06 11:04 137K 
[IMG]53580231-young-beauty-wearing-pink-dressft160_medium.jpg2016-10-06 11:08 167K 
[IMG]53580235-young-beauty-wearing-pink-dressft160_medium.jpg2016-10-06 11:05 172K 
[IMG]53580251-baustelle-baugeruest-werkzeuge-und-mehr-9ft160_medium.jpg2016-10-06 11:04 225K 
[IMG]53580252-young-beauty-wearing-pink-dressft160_medium.jpg2016-10-06 11:04 156K 
[IMG]53580265-young-beauty-wearing-pink-dressft160_medium.jpg2016-10-06 11:07 166K 
[IMG]53580267-young-beauty-wearing-pink-dressft160_medium.jpg2016-10-06 11:03 164K 
[IMG]53580271-young-beauty-wearing-pink-dressft160_medium.jpg2016-10-06 11:05 159K 
[IMG]53580275-young-beauty-wearing-pink-dressft160_medium.jpg2016-10-06 11:02 176K 
[IMG]53580283-young-beauty-wearing-pink-dressft160_medium.jpg2016-10-06 11:05 171K 
[IMG]53580288-funny-rabbit-cartoonft160_medium.jpg2016-10-06 11:04 143K 
[IMG]53580292-cute-baby-monkey-cartoonft160_medium.jpg2016-10-06 11:07 153K 
[IMG]53580294-baustelle-baugeruest-werkzeuge-und-mehr-10ft160_medium.jpg2016-10-06 11:07 217K 
[IMG]53580298-cute-baby-monkey-cartoon-with-soothersft160_medium.jpg2016-10-06 11:06 152K 
[IMG]53580300-cute-giraffe-cartoonft160_medium.jpg2016-10-06 11:06 128K 
[IMG]53580302-cute-giraffe-cartoonft160_medium.jpg2016-10-06 11:02 131K 
[IMG]53580305-young-beauty-wearing-pink-dressft160_medium.jpg2016-10-06 11:03 170K 
[IMG]53580318-serre-tropicaleft160_medium.jpg2016-10-06 11:06 220K 
[IMG]53580329-frost-glassft160_medium.jpg2016-10-06 11:05 124K 
[IMG]53580331-sexy-visageft160_medium.jpg2016-10-06 11:04 166K 
[IMG]53580343-collection-of-vintage-calligraphic-design-elements-and-page-decft160_medium.jpg2016-10-06 11:06 215K 
[IMG]53580345-fille-attractive-dans-le-foinft160_medium.jpg2016-10-06 11:06 158K 
[IMG]53580347-beautiful-hyacinthsft160_medium.jpg2016-10-06 11:03 169K 
[IMG]53580351-fille-attractive-dans-le-foinft160_medium.jpg2016-10-06 11:03 181K 
[IMG]53580353-beach-chair-with-sea-backgroundft160_medium.jpg2016-10-06 11:01 174K 
[IMG]53580354-fille-attractive-dans-le-foinft160_medium.jpg2016-10-06 11:07 217K 
[IMG]53580358-hurra-glueckliche-junge-frau-sitzend-am-schreibtischft160_medium.jpg2016-10-06 11:07 125K 
[IMG]53580364-trusetaler-wasserfallft160_medium.jpg2016-10-06 11:07 187K 
[IMG]53580375-fille-attractive-dans-le-foinft160_medium.jpg2016-10-06 11:04 179K 
[IMG]53580379-gearft160_medium.jpg2016-10-06 11:07 170K 
[IMG]53580381-gearft160_medium.jpg2016-10-06 11:05 164K 
[IMG]53580394-serre-tropicaleft160_medium.jpg2016-10-06 11:02 234K 
[IMG]53580401-etudiantft160_medium.jpg2016-10-06 11:06 172K 
[IMG]53580402-student-on-the-phoneft160_medium.jpg2016-10-06 11:03 167K 
[IMG]53580418-nepal-collageft160_medium.jpg2016-10-06 11:06 218K 
[IMG]53580431-telephoneft160_medium.jpg2016-10-06 11:05 171K 
[IMG]53580442-mobileft160_medium.jpg2016-10-06 11:02 165K 
[IMG]53580445-telephonantft160_medium.jpg2016-10-06 11:05 154K 
[IMG]53580448-beach-chair-with-sea-backgroundft160_medium.jpg2016-10-06 11:02 148K 
[IMG]53580453-pretty-smiling-girl-relaxing-outdoorft160_medium.jpg2016-10-06 11:06 170K 
[IMG]53580454-3d-jumping-redft160_medium.jpg2016-10-06 11:07 111K 
[IMG]53580462-pretty-smiling-girl-relaxing-outdoorft160_medium.jpg2016-10-06 11:01 160K 
[IMG]53580465-pretty-smiling-girl-relaxing-outdoorft160_medium.jpg2016-10-06 11:05 162K 
[IMG]53580478-pretty-smiling-girl-relaxing-outdoorft160_medium.jpg2016-10-06 11:06 163K 
[IMG]53580482-baiserft160_medium.jpg2016-10-06 11:06 166K 
[IMG]53580486-shovel-sand-pile-against-the-houseft160_medium.jpg2016-10-06 11:01 199K 
[IMG]53580496-pretty-smiling-girl-relaxing-outdoorft160_medium.jpg2016-10-06 11:07 160K 
[IMG]53580497-pharmacy-stickersft160_medium.jpg2016-10-06 11:04 189K 
[IMG]53580500-pretty-smiling-girl-relaxing-outdoorft160_medium.jpg2016-10-06 11:06 168K 
[IMG]53580507-pretty-smiling-girl-relaxing-outdoorft160_medium.jpg2016-10-06 11:06 170K 
[IMG]53580512-fashion-model-in-fashion-dress-sitting-wooden-chair-posingft160_medium.jpg2016-10-06 11:05 148K 
[IMG]53580514-fashion-model-in-fashion-dress-sitting-chair-posingft160_medium.jpg2016-10-06 11:02 153K 
[IMG]53580515-lie-behindft160_medium.jpg2016-10-06 11:03 174K 
[IMG]53580519--elegant-invitation-card-in-royal-luxury-styleft160_medium.jpg2016-10-06 11:01 197K 
[IMG]53580521-fille-se-cacherft160_medium.jpg2016-10-06 11:04 169K 
[IMG]53580525-trusetaler-wasserfallft160_medium.jpg2016-10-06 11:05 188K 
[IMG]53580528-doodle-valentine-imagesft160_medium.jpg2016-10-06 11:06 212K 
[IMG]53580539-doha-qatar-is-rapidly-expanding-for-the-2022-fifa-world-cupft160_medium.jpg2016-10-06 11:07 165K 
[IMG]53580541-autumnal-leaves-on-a-old-wooden-backgroundft160_medium.jpg2016-10-06 11:05 169K 
[IMG]53580543-se-cacherft160_medium.jpg2016-10-06 11:07 176K 
[IMG]53580544-fall-leaves-on-old-wooden-backgroundft160_medium.jpg2016-10-06 11:01 158K 
[IMG]53580547-autumn-leaves-on-old-wooden-backgroundft160_medium.jpg2016-10-06 11:05 159K 
[IMG]53580549-autumn-still-life-with-pumpkins-on-old-wooden-backgroundft160_medium.jpg2016-10-06 11:06 188K 
[IMG]53580550-herbal-tea-on-an-old-wooden-tableft160_medium.jpg2016-10-06 11:06 211K 
[IMG]53580556-pretty-smiling-girl-relaxing-outdoorft160_medium.jpg2016-10-06 11:04 184K 
[IMG]53580568-femme-se-cacherft160_medium.jpg2016-10-06 11:07 176K 
[IMG]53580571-young-beauty-wearing-pink-dressft160_medium.jpg2016-10-06 11:02 174K 
[IMG]53580576-young-smiling-teenager-working-on-laptopft160_medium.jpg2016-10-06 11:07 167K 
[IMG]53580578-bus-and-skyscrapers-in-vilniusft160_medium.jpg2016-10-06 11:05 180K 
[IMG]53580592-young-smiling-teenager-working-on-laptopft160_medium.jpg2016-10-06 11:07 165K 
[IMG]53580596-elegant-invitation-card-in-royal-styleft160_medium.jpg2016-10-06 11:03 240K 
[IMG]53580599-burnt-out-holeft160_medium.jpg2016-10-06 11:01 132K 
[IMG]53580600-a-young-attractive-woman-surfing-onlineft160_medium.jpg2016-10-06 11:05 165K 
[IMG]53580604-zuckerstangeft160_medium.jpg2016-10-06 11:03 97K 
[IMG]53580605-termite-life-cycleft160_medium.jpg2016-10-06 11:06 196K 
[IMG]53580616-young-smiling-teenager-working-on-laptopft160_medium.jpg2016-10-06 11:07 167K 
[IMG]53580618-serre-tropicaleft160_medium.jpg2016-10-06 11:04 217K 
[IMG]53580623-a-young-attractive-woman-surfing-onlineft160_medium.jpg2016-10-06 11:07 179K 
[IMG]53580641-young-smiling-teenager-working-on-laptopft160_medium.jpg2016-10-06 11:06 148K 
[IMG]53580642-young-woman-with-a-laptop-outdoor-portrait-ft160_medium.jpg2016-10-06 11:02 160K 
[IMG]53580648-golden-trophyft160_medium.jpg2016-10-06 11:03 178K 
[IMG]53580655-femme-telephonantft160_medium.jpg2016-10-06 11:07 166K 
[IMG]53580667-vector-car-icon-setft160_medium.jpg2016-10-06 11:03 190K 
[IMG]53580669-vector-car-iconft160_medium.jpg2016-10-06 11:04 193K 
[IMG]53580673-eco-carft160_medium.jpg2016-10-06 11:02 190K 
[IMG]53580677-moisture-meter-2ft160_medium.jpg2016-10-06 11:02 128K 
[IMG]53580679-student-on-the-phoneft160_medium.jpg2016-10-06 11:06 172K 
[IMG]53580683-student-on-the-phoneft160_medium.jpg2016-10-06 11:07 169K 
[IMG]53580695-trusetaler-wasserfallft160_medium.jpg2016-10-06 11:02 189K 
[IMG]53580700-serre-tropicaleft160_medium.jpg2016-10-06 11:04 214K 
[IMG]53580703-beautiful-sexy-blond-girl-studio-shotft160_medium.jpg2016-10-06 11:07 137K 
[IMG]53580706-elegant-wedding-background-with-flowers-for-designft160_medium.jpg2016-10-06 11:04 154K 
[IMG]53580710-fille-avec-mobileft160_medium.jpg2016-10-06 11:04 173K 
[IMG]53580712-student-sent-smsft160_medium.jpg2016-10-06 11:05 172K 
[IMG]53580718-beautiful-sexy-blond-girl-studio-shotft160_medium.jpg2016-10-06 11:04 130K 
[IMG]53580721-beautiful-sexy-blond-girl-studio-shotft160_medium.jpg2016-10-06 11:07 141K 
[IMG]53580722-telephonantft160_medium.jpg2016-10-06 11:07 166K 
[IMG]53580734-telephonantft160_medium.jpg2016-10-06 11:06 165K 

Apache/2.4.12 (Ubuntu) Server at pics.mein-artikel-design.de Port 443